Wetterdaten: Donnerstag, 30.03.2017
Datum Zeit Temp. A. Feuchte A. Luftdruck Regen Wind Richtung Richtung Sonnenschein ET UV Solar Taupunkt Windchill Windben Empfang
30.03.2017 00:00 10,8 C 74 % 1024,9 hPa 0,0 l/m 11,0 km/h (2 Bft) SW 221 0 min 0,000 mm 0,0 UV-I 0 W/m 6,4 C 7,9 C 16,1 km/h (3 Bft) 95,12 %
30.03.2017 00:02 10,8 C 74 % 1024,9 hPa 0,0 l/m 10,1 km/h (2 Bft) W-SW 240 0 min 0,000 mm 0,0 UV-I 0 W/m 6,4 C 8,4 C 14,5 km/h (3 Bft) 97,73 %
30.03.2017 00:04 10,7 C 74 % 1024,9 hPa 0,0 l/m 8,5 km/h (2 Bft) SW 225 0 min 0,000 mm 0,0 UV-I 0 W/m 6,3 C 9,3 C 12,9 km/h (3 Bft) 95,74 %
30.03.2017 00:06 10,7 C 74 % 1024,9 hPa 0,0 l/m 9,9 km/h (2 Bft) SW 236 0 min 0,000 mm 0,0 UV-I 0 W/m 6,3 C 8,4 C 17,7 km/h (3 Bft) 100,00 %
30.03.2017 00:08 10,7 C 74 % 1024,9 hPa 0,0 l/m 10,8 km/h (2 Bft) SW 227 0 min 0,000 mm 0,0 UV-I 0 W/m 6,3 C 7,9 C 17,7 km/h (3 Bft) 96,77 %
30.03.2017 00:10 10,7 C 74 % 1024,9 hPa 0,0 l/m 9,2 km/h (2 Bft) SW 219 0 min 0,000 mm 0,0 UV-I 0 W/m 6,3 C 8,8 C 14,5 km/h (3 Bft) 96,36 %
30.03.2017 00:12 10,7 C 74 % 1024,9 hPa 0,0 l/m 10,7 km/h (2 Bft) SW 229 0 min 0,000 mm 0,0 UV-I 0 W/m 6,3 C 8,0 C 16,1 km/h (3 Bft) 94,59 %
30.03.2017 00:14 10,7 C 74 % 1025,0 hPa 0,0 l/m 10,9 km/h (2 Bft) W-SW 255 0 min 0,000 mm 0,0 UV-I 0 W/m 6,3 C 7,9 C 14,5 km/h (3 Bft) 98,21 %
30.03.2017 00:16 10,7 C 74 % 1024,9 hPa 0,0 l/m 11,2 km/h (2 Bft) W-SW 248 0 min 0,000 mm 0,0 UV-I 0 W/m 6,3 C 7,7 C 19,3 km/h (3 Bft) 95,12 %
30.03.2017 00:18 10,6 C 74 % 1025,0 hPa 0,0 l/m 9,5 km/h (2 Bft) W-SW 240 0 min 0,000 mm 0,0 UV-I 0 W/m 6,2 C 8,5 C 16,1 km/h (3 Bft) 96,00 %
30.03.2017 00:20 10,6 C 75 % 1025,0 hPa 0,0 l/m 11,6 km/h (2 Bft) W-SW 242 0 min 0,000 mm 0,0 UV-I 0 W/m 6,4 C 7,4 C 19,3 km/h (3 Bft) 92,45 %
30.03.2017 00:22 10,7 C 75 % 1025,0 hPa 0,0 l/m 9,2 km/h (2 Bft) S-SW 213 0 min 0,000 mm 0,0 UV-I 0 W/m 6,5 C 8,8 C 16,1 km/h (3 Bft) 94,29 %
30.03.2017 00:24 10,6 C 75 % 1025,0 hPa 0,0 l/m 7,7 km/h (2 Bft) W-SW 257 0 min 0,000 mm 0,0 UV-I 0 W/m 6,4 C 9,7 C 14,5 km/h (3 Bft) 97,87 %
30.03.2017 00:26 10,6 C 75 % 1025,0 hPa 0,0 l/m 7,8 km/h (2 Bft) W-SW 240 0 min 0,000 mm 0,0 UV-I 0 W/m 6,4 C 9,6 C 12,9 km/h (3 Bft) 94,00 %
30.03.2017 00:28 10,6 C 74 % 1025,0 hPa 0,0 l/m 7,7 km/h (2 Bft) S-SW 202 0 min 0,000 mm 0,0 UV-I 0 W/m 6,2 C 9,7 C 12,9 km/h (3 Bft) 95,74 %
30.03.2017 00:30 10,6 C 75 % 1025,0 hPa 0,0 l/m 7,7 km/h (2 Bft) S-SW 213 0 min 0,000 mm 0,0 UV-I 0 W/m 6,4 C 9,7 C 11,3 km/h (2 Bft) 96,00 %
30.03.2017 00:32 10,6 C 75 % 1025,0 hPa 0,0 l/m 8,4 km/h (2 Bft) S-SW 211 0 min 0,000 mm 0,0 UV-I 0 W/m 6,4 C 9,2 C 11,3 km/h (2 Bft) 97,87 %
30.03.2017 00:34 10,5 C 75 % 1025,0 hPa 0,0 l/m 7,6 km/h (2 Bft) SW 226 0 min 0,000 mm 0,0 UV-I 0 W/m 6,3 C 9,6 C 12,9 km/h (3 Bft) 100,00 %
30.03.2017 00:36 10,4 C 75 % 1025,0 hPa 0,0 l/m 6,4 km/h (2 Bft) W-SW 237 0 min 0,000 mm 0,0 UV-I 0 W/m 6,2 C 10,4 C 9,7 km/h (2 Bft) 100,00 %
30.03.2017 00:38 10,4 C 75 % 1025,0 hPa 0,0 l/m 9,2 km/h (2 Bft) SW 218 0 min 0,000 mm 0,0 UV-I 0 W/m 6,2 C 8,5 C 12,9 km/h (3 Bft) 95,12 %
30.03.2017 00:40 10,4 C 75 % 1025,0 hPa 0,0 l/m 9,1 km/h (2 Bft) SW 221 0 min 0,000 mm 0,0 UV-I 0 W/m 6,2 C 8,6 C 12,9 km/h (3 Bft) 98,00 %
30.03.2017 00:42 10,4 C 75 % 1025,0 hPa 0,0 l/m 8,6 km/h (2 Bft) S-SW 200 0 min 0,000 mm 0,0 UV-I 0 W/m 6,2 C 8,9 C 14,5 km/h (3 Bft) 93,62 %
30.03.2017 00:44 10,4 C 75 % 1025,0 hPa 0,0 l/m 8,1 km/h (2 Bft) S-SW 211 0 min 0,000 mm 0,0 UV-I 0 W/m 6,2 C 9,2 C 11,3 km/h (2 Bft) 93,62 %
30.03.2017 00:46 10,4 C 75 % 1025,0 hPa 0,0 l/m 9,4 km/h (2 Bft) S-SW 205 0 min 0,000 mm 0,0 UV-I 0 W/m 6,2 C 8,4 C 12,9 km/h (3 Bft) 100,00 %
30.03.2017 00:48 10,4 C 75 % 1025,0 hPa 0,0 l/m 7,3 km/h (2 Bft) SW 235 0 min 0,000 mm 0,0 UV-I 0 W/m 6,2 C 9,8 C 11,3 km/h (2 Bft) 94,64 %
30.03.2017 00:50 10,4 C 75 % 1025,0 hPa 0,0 l/m 6,7 km/h (2 Bft) S-SW 211 0 min 0,000 mm 0,0 UV-I 0 W/m 6,2 C 10,2 C 9,7 km/h (2 Bft) 95,74 %
30.03.2017 00:52 10,3 C 75 % 1025,0 hPa 0,0 l/m 8,5 km/h (2 Bft) S-SW 210 0 min 0,000 mm 0,0 UV-I 0 W/m 6,1 C 8,8 C 12,9 km/h (3 Bft) 93,62 %
30.03.2017 00:54 10,3 C 75 % 1025,0 hPa 0,0 l/m 9,7 km/h (2 Bft) W-SW 240 0 min 0,000 mm 0,0 UV-I 0 W/m 6,1 C 8,1 C 14,5 km/h (3 Bft) 93,62 %
30.03.2017 00:56 10,3 C 75 % 1025,1 hPa 0,0 l/m 6,0 km/h (2 Bft) S-SW 213 0 min 0,000 mm 0,0 UV-I 0 W/m 6,1 C 10,3 C 9,7 km/h (2 Bft) 97,87 %
30.03.2017 00:58 10,3 C 75 % 1025,0 hPa 0,0 l/m 7,3 km/h (2 Bft) SW 229 0 min 0,000 mm 0,0 UV-I 0 W/m 6,1 C 9,7 C 12,9 km/h (3 Bft) 95,74 %
30.03.2017 01:00 10,3 C 75 % 1025,0 hPa 0,0 l/m 6,4 km/h (2 Bft) S-SW 213 0 min 0,025 mm 0,0 UV-I 0 W/m 6,1 C 10,3 C 11,3 km/h (2 Bft) 95,74 %
30.03.2017 01:02 10,2 C 75 % 1025,0 hPa 0,0 l/m 8,0 km/h (2 Bft) S 173 0 min 0,000 mm 0,0 UV-I 0 W/m 6,0 C 9,1 C 11,3 km/h (2 Bft) 96,23 %
30.03.2017 01:04 10,2 C 75 % 1025,1 hPa 0,0 l/m 8,3 km/h (2 Bft) SW 221 0 min 0,000 mm 0,0 UV-I 0 W/m 6,0 C 8,9 C 12,9 km/h (3 Bft) 95,74 %
30.03.2017 01:06 10,2 C 76 % 1025,1 hPa 0,0 l/m 6,3 km/h (2 Bft) S-SW 203 0 min 0,000 mm 0,0 UV-I 0 W/m 6,2 C 10,2 C 11,3 km/h (2 Bft) 97,87 %
30.03.2017 01:08 10,2 C 76 % 1025,1 hPa 0,0 l/m 5,9 km/h (2 Bft) S-SW 209 0 min 0,000 mm 0,0 UV-I 0 W/m 6,2 C 10,2 C 9,7 km/h (2 Bft) 94,87 %
30.03.2017 01:10 10,2 C 75 % 1025,1 hPa 0,0 l/m 6,4 km/h (2 Bft) SW 219 0 min 0,000 mm 0,0 UV-I 0 W/m 6,0 C 10,2 C 11,3 km/h (2 Bft) 97,87 %
30.03.2017 01:12 10,2 C 76 % 1025,1 hPa 0,0 l/m 6,3 km/h (2 Bft) SW 215 0 min 0,000 mm 0,0 UV-I 0 W/m 6,2 C 10,2 C 8,0 km/h (2 Bft) 93,62 %
30.03.2017 01:14 10,1 C 76 % 1025,1 hPa 0,0 l/m 6,2 km/h (2 Bft) SW 234 0 min 0,000 mm 0,0 UV-I 0 W/m 6,1 C 10,1 C 9,7 km/h (2 Bft) 98,11 %
30.03.2017 01:16 10,1 C 76 % 1025,1 hPa 0,0 l/m 7,1 km/h (2 Bft) S-SW 196 0 min 0,000 mm 0,0 UV-I 0 W/m 6,1 C 9,6 C 12,9 km/h (3 Bft) 97,22 %
30.03.2017 01:18 10,0 C 76 % 1025,1 hPa 0,0 l/m 5,8 km/h (2 Bft) S-SW 208 0 min 0,000 mm 0,0 UV-I 0 W/m 6,0 C 10,0 C 11,3 km/h (2 Bft) 97,87 %
30.03.2017 01:20 10,0 C 76 % 1025,1 hPa 0,0 l/m 6,7 km/h (2 Bft) W-SW 240 0 min 0,000 mm 0,0 UV-I 0 W/m 6,0 C 9,8 C 9,7 km/h (2 Bft) 98,00 %
30.03.2017 01:22 9,9 C 76 % 1025,1 hPa 0,0 l/m 5,8 km/h (2 Bft) SW 214 0 min 0,000 mm 0,0 UV-I 0 W/m 5,9 C 9,9 C 9,7 km/h (2 Bft) 95,74 %
30.03.2017 01:24 9,9 C 76 % 1025,1 hPa 0,0 l/m 6,2 km/h (2 Bft) SW 220 0 min 0,000 mm 0,0 UV-I 0 W/m 5,9 C 9,9 C 12,9 km/h (3 Bft) 97,92 %
30.03.2017 01:26 10,0 C 76 % 1025,1 hPa 0,0 l/m 6,7 km/h (2 Bft) S-SW 196 0 min 0,000 mm 0,0 UV-I 0 W/m 6,0 C 9,8 C 9,7 km/h (2 Bft) 97,87 %
30.03.2017 01:28 9,9 C 76 % 1025,1 hPa 0,0 l/m 7,2 km/h (2 Bft) SW 234 0 min 0,000 mm 0,0 UV-I 0 W/m 5,9 C 9,3 C 11,3 km/h (2 Bft) 100,00 %
30.03.2017 01:30 9,9 C 76 % 1025,1 hPa 0,0 l/m 7,1 km/h (2 Bft) W-SW 240 0 min 0,000 mm 0,0 UV-I 0 W/m 5,9 C 9,4 C 9,7 km/h (2 Bft) 100,00 %
30.03.2017 01:32 9,9 C 76 % 1025,2 hPa 0,0 l/m 7,5 km/h (2 Bft) S-SW 207 0 min 0,000 mm 0,0 UV-I 0 W/m 5,9 C 9,1 C 11,3 km/h (2 Bft) 97,87 %
30.03.2017 01:34 9,9 C 76 % 1025,2 hPa 0,0 l/m 6,5 km/h (2 Bft) S-SW 212 0 min 0,000 mm 0,0 UV-I 0 W/m 5,9 C 9,9 C 11,3 km/h (2 Bft) 96,00 %
30.03.2017 01:36 9,9 C 76 % 1025,2 hPa 0,0 l/m 6,9 km/h (2 Bft) S-SW 211 0 min 0,000 mm 0,0 UV-I 0 W/m 5,9 C 9,5 C 9,7 km/h (2 Bft) 97,87 %
30.03.2017 01:38 9,9 C 76 % 1025,2 hPa 0,0 l/m 7,6 km/h (2 Bft) S-SW 213 0 min 0,000 mm 0,0 UV-I 0 W/m 5,9 C 9,0 C 11,3 km/h (2 Bft) 95,74 %
30.03.2017 01:40 9,9 C 76 % 1025,2 hPa 0,0 l/m 8,1 km/h (2 Bft) SW 226 0 min 0,000 mm 0,0 UV-I 0 W/m 5,9 C 8,7 C 12,9 km/h (3 Bft) 95,74 %
30.03.2017 01:42 9,9 C 76 % 1025,2 hPa 0,0 l/m 8,8 km/h (2 Bft) S-SW 210 0 min 0,000 mm 0,0 UV-I 0 W/m 5,9 C 8,2 C 11,3 km/h (2 Bft) 100,00 %
30.03.2017 01:44 9,9 C 76 % 1025,2 hPa 0,0 l/m 7,5 km/h (2 Bft) S-SW 209 0 min 0,000 mm 0,0 UV-I 0 W/m 5,9 C 9,1 C 11,3 km/h (2 Bft) 92,16 %
30.03.2017 01:46 9,8 C 76 % 1025,2 hPa 0,0 l/m 7,3 km/h (2 Bft) S-SW 211 0 min 0,000 mm 0,0 UV-I 0 W/m 5,8 C 9,1 C 11,3 km/h (2 Bft) 100,00 %
30.03.2017 01:48 9,8 C 76 % 1025,2 hPa 0,0 l/m 8,1 km/h (2 Bft) S-SW 213 0 min 0,000 mm 0,0 UV-I 0 W/m 5,8 C 8,6 C 12,9 km/h (3 Bft) 100,00 %
30.03.2017 01:50 9,8 C 76 % 1025,2 hPa 0,0 l/m 7,3 km/h (2 Bft) S-SW 208 0 min 0,000 mm 0,0 UV-I 0 W/m 5,8 C 9,1 C 9,7 km/h (2 Bft) 97,87 %
30.03.2017 01:52 9,7 C 76 % 1025,3 hPa 0,0 l/m 6,5 km/h (2 Bft) S-SW 208 0 min 0,000 mm 0,0 UV-I 0 W/m 5,7 C 9,7 C 9,7 km/h (2 Bft) 100,00 %
30.03.2017 01:54 9,6 C 77 % 1025,3 hPa 0,0 l/m 6,4 km/h (2 Bft) S-SW 207 0 min 0,000 mm 0,0 UV-I 0 W/m 5,8 C 9,6 C 9,7 km/h (2 Bft) 97,92 %
30.03.2017 01:56 9,6 C 77 % 1025,3 hPa 0,0 l/m 6,2 km/h (2 Bft) S-SW 205 0 min 0,000 mm 0,0 UV-I 0 W/m 5,8 C 9,6 C 9,7 km/h (2 Bft) 100,00 %
30.03.2017 01:58 9,6 C 77 % 1025,4 hPa 0,0 l/m 6,9 km/h (2 Bft) S-SW 211 0 min 0,000 mm 0,0 UV-I 0 W/m 5,8 C 9,2 C 9,7 km/h (2 Bft) 95,74 %
30.03.2017 02:00 9,6 C 77 % 1025,3 hPa 0,0 l/m 7,5 km/h (2 Bft) S-SW 212 0 min 0,026 mm 0,0 UV-I 0 W/m 5,8 C 8,8 C 11,3 km/h (2 Bft) 96,00 %
30.03.2017 02:02 9,4 C 77 % 1025,3 hPa 0,0 l/m 6,9 km/h (2 Bft) S-SW 211 0 min 0,000 mm 0,0 UV-I 0 W/m 5,6 C 9,0 C 8,0 km/h (2 Bft) 100,00 %
30.03.2017 02:04 9,4 C 77 % 1025,3 hPa 0,0 l/m 6,3 km/h (2 Bft) SW 219 0 min 0,000 mm 0,0 UV-I 0 W/m 5,6 C 9,4 C 9,7 km/h (2 Bft) 97,87 %
30.03.2017 02:06 9,3 C 78 % 1025,4 hPa 0,0 l/m 6,9 km/h (2 Bft) S-SW 209 0 min 0,000 mm 0,0 UV-I 0 W/m 5,7 C 8,9 C 9,7 km/h (2 Bft) 100,00 %
30.03.2017 02:08 9,2 C 78 % 1025,3 hPa 0,0 l/m 6,3 km/h (2 Bft) S-SW 209 0 min 0,000 mm 0,0 UV-I 0 W/m 5,6 C 9,2 C 9,7 km/h (2 Bft) 96,00 %
30.03.2017 02:10 9,1 C 78 % 1025,4 hPa 0,0 l/m 6,5 km/h (2 Bft) S-SW 212 0 min 0,000 mm 0,0 UV-I 0 W/m 5,5 C 9,1 C 9,7 km/h (2 Bft) 100,00 %
30.03.2017 02:12 9,0 C 79 % 1025,3 hPa 0,0 l/m 5,6 km/h (1 Bft) S-SW 213 0 min 0,000 mm 0,0 UV-I 0 W/m 5,6 C 9,0 C 8,0 km/h (2 Bft) 100,00 %
30.03.2017 02:14 9,0 C 79 % 1025,3 hPa 0,0 l/m 6,5 km/h (2 Bft) S-SW 211 0 min 0,000 mm 0,0 UV-I 0 W/m 5,6 C 9,0 C 8,0 km/h (2 Bft) 97,87 %
30.03.2017 02:16 9,0 C 79 % 1025,3 hPa 0,0 l/m 6,1 km/h (2 Bft) SW 216 0 min 0,000 mm 0,0 UV-I 0 W/m 5,6 C 9,0 C 8,0 km/h (2 Bft) 95,74 %
30.03.2017 02:18 8,9 C 79 % 1025,4 hPa 0,0 l/m 5,8 km/h (2 Bft) SW 216 0 min 0,000 mm 0,0 UV-I 0 W/m 5,5 C 8,9 C 6,4 km/h (2 Bft) 97,87 %
30.03.2017 02:20 8,9 C 79 % 1025,4 hPa 0,0 l/m 6,2 km/h (2 Bft) SW 218 0 min 0,000 mm 0,0 UV-I 0 W/m 5,5 C 8,9 C 8,0 km/h (2 Bft) 95,74 %
30.03.2017 02:22 8,9 C 79 % 1025,4 hPa 0,0 l/m 5,2 km/h (1 Bft) SW 217 0 min 0,000 mm 0,0 UV-I 0 W/m 5,5 C 8,9 C 8,0 km/h (2 Bft) 100,00 %
30.03.2017 02:24 8,8 C 79 % 1025,3 hPa 0,0 l/m 6,4 km/h (2 Bft) SW 219 0 min 0,000 mm 0,0 UV-I 0 W/m 5,4 C 8,8 C 9,7 km/h (2 Bft) 98,00 %
30.03.2017 02:26 8,8 C 80 % 1025,4 hPa 0,0 l/m 6,0 km/h (2 Bft) SW 217 0 min 0,000 mm 0,0 UV-I 0 W/m 5,5 C 8,8 C 8,0 km/h (2 Bft) 97,87 %
30.03.2017 02:28 8,7 C 80 % 1025,4 hPa 0,0 l/m 6,4 km/h (2 Bft) S-SW 213 0 min 0,000 mm 0,0 UV-I 0 W/m 5,4 C 8,7 C 9,7 km/h (2 Bft) 100,00 %
30.03.2017 02:30 8,6 C 80 % 1025,4 hPa 0,0 l/m 7,2 km/h (2 Bft) S-SW 212 0 min 0,000 mm 0,0 UV-I 0 W/m 5,3 C 8,0 C 9,7 km/h (2 Bft) 98,00 %
30.03.2017 02:32 8,6 C 80 % 1025,4 hPa 0,0 l/m 7,2 km/h (2 Bft) S-SW 211 0 min 0,000 mm 0,0 UV-I 0 W/m 5,3 C 8,0 C 9,7 km/h (2 Bft) 100,00 %
30.03.2017 02:34 8,4 C 81 % 1025,4 hPa 0,0 l/m 6,5 km/h (2 Bft) S-SW 203 0 min 0,000 mm 0,0 UV-I 0 W/m 5,3 C 8,3 C 8,0 km/h (2 Bft) 97,87 %
30.03.2017 02:36 8,4 C 81 % 1025,4 hPa 0,0 l/m 6,5 km/h (2 Bft) S-SW 200 0 min 0,000 mm 0,0 UV-I 0 W/m 5,3 C 8,3 C 9,7 km/h (2 Bft) 100,00 %
30.03.2017 02:38 8,4 C 81 % 1025,4 hPa 0,0 l/m 6,1 km/h (2 Bft) S-SW 204 0 min 0,000 mm 0,0 UV-I 0 W/m 5,3 C 8,4 C 8,0 km/h (2 Bft) 97,87 %
30.03.2017 02:40 8,4 C 81 % 1025,3 hPa 0,0 l/m 5,7 km/h (1 Bft) S-SW 203 0 min 0,000 mm 0,0 UV-I 0 W/m 5,3 C 8,4 C 8,0 km/h (2 Bft) 97,87 %
30.03.2017 02:42 8,4 C 81 % 1025,4 hPa 0,0 l/m 6,4 km/h (2 Bft) SW 223 0 min 0,000 mm 0,0 UV-I 0 W/m 5,3 C 8,4 C 9,7 km/h (2 Bft) 100,00 %
30.03.2017 02:44 8,5 C 81 % 1025,4 hPa 0,0 l/m 6,9 km/h (2 Bft) SW 220 0 min 0,000 mm 0,0 UV-I 0 W/m 5,4 C 8,1 C 9,7 km/h (2 Bft) 95,92 %
30.03.2017 02:46 8,5 C 81 % 1025,3 hPa 0,0 l/m 7,4 km/h (2 Bft) S-SW 211 0 min 0,000 mm 0,0 UV-I 0 W/m 5,4 C 7,7 C 9,7 km/h (2 Bft) 100,00 %
30.03.2017 02:48 8,6 C 81 % 1025,3 hPa 0,0 l/m 7,9 km/h (2 Bft) S-SW 196 0 min 0,000 mm 0,0 UV-I 0 W/m 5,5 C 7,5 C 9,7 km/h (2 Bft) 95,74 %
30.03.2017 02:50 8,6 C 81 % 1025,3 hPa 0,0 l/m 8,1 km/h (2 Bft) S-SW 205 0 min 0,000 mm 0,0 UV-I 0 W/m 5,5 C 7,3 C 11,3 km/h (2 Bft) 97,87 %
30.03.2017 02:52 8,6 C 81 % 1025,3 hPa 0,0 l/m 8,3 km/h (2 Bft) S-SW 208 0 min 0,000 mm 0,0 UV-I 0 W/m 5,5 C 7,2 C 12,9 km/h (3 Bft) 95,74 %
30.03.2017 02:54 8,6 C 81 % 1025,4 hPa 0,0 l/m 9,1 km/h (2 Bft) S-SW 210 0 min 0,000 mm 0,0 UV-I 0 W/m 5,5 C 6,6 C 11,3 km/h (2 Bft) 94,00 %
30.03.2017 02:56 8,6 C 81 % 1025,4 hPa 0,0 l/m 7,7 km/h (2 Bft) S-SW 211 0 min 0,000 mm 0,0 UV-I 0 W/m 5,5 C 7,6 C 11,3 km/h (2 Bft) 97,87 %
30.03.2017 02:58 8,7 C 81 % 1025,3 hPa 0,0 l/m 8,0 km/h (2 Bft) S-SW 200 0 min 0,000 mm 0,0 UV-I 0 W/m 5,6 C 7,5 C 11,3 km/h (2 Bft) 97,87 %
30.03.2017 03:00 8,7 C 81 % 1025,3 hPa 0,0 l/m 9,5 km/h (2 Bft) S-SW 207 0 min 0,025 mm 0,0 UV-I 0 W/m 5,6 C 6,5 C 12,9 km/h (3 Bft) 95,74 %
30.03.2017 03:02 8,8 C 80 % 1025,3 hPa 0,0 l/m 8,0 km/h (2 Bft) S 186 0 min 0,000 mm 0,0 UV-I 0 W/m 5,5 C 7,6 C 9,7 km/h (2 Bft) 96,00 %
30.03.2017 03:04 8,8 C 80 % 1025,3 hPa 0,0 l/m 6,7 km/h (2 Bft) SW 214 0 min 0,000 mm 0,0 UV-I 0 W/m 5,5 C 8,6 C 9,7 km/h (2 Bft) 97,87 %
30.03.2017 03:06 8,9 C 80 % 1025,3 hPa 0,0 l/m 6,8 km/h (2 Bft) S-SW 196 0 min 0,000 mm 0,0 UV-I 0 W/m 5,6 C 8,6 C 9,7 km/h (2 Bft) 98,00 %
30.03.2017 03:08 8,9 C 80 % 1025,3 hPa 0,0 l/m 6,9 km/h (2 Bft) S-SW 211 0 min 0,000 mm 0,0 UV-I 0 W/m 5,6 C 8,5 C 11,3 km/h (2 Bft) 97,87 %
30.03.2017 03:10 8,9 C 80 % 1025,3 hPa 0,0 l/m 6,7 km/h (2 Bft) SW 216 0 min 0,000 mm 0,0 UV-I 0 W/m 5,6 C 8,7 C 11,3 km/h (2 Bft) 95,74 %
30.03.2017 03:12 8,9 C 80 % 1025,3 hPa 0,0 l/m 6,5 km/h (2 Bft) SW 217 0 min 0,000 mm 0,0 UV-I 0 W/m 5,6 C 8,9 C 9,7 km/h (2 Bft) 97,14 %
30.03.2017 03:14 9,0 C 80 % 1025,3 hPa 0,0 l/m 5,8 km/h (2 Bft) SW 220 0 min 0,000 mm 0,0 UV-I 0 W/m 5,7 C 9,0 C 9,7 km/h (2 Bft) 93,62 %
30.03.2017 03:16 9,0 C 79 % 1025,3 hPa 0,0 l/m 6,3 km/h (2 Bft) SW 227 0 min 0,000 mm 0,0 UV-I 0 W/m 5,6 C 9,0 C 9,7 km/h (2 Bft) 95,74 %
30.03.2017 03:18 9,1 C 79 % 1025,3 hPa 0,0 l/m 6,6 km/h (2 Bft) S-SW 198 0 min 0,000 mm 0,0 UV-I 0 W/m 5,7 C 9,0 C 8,0 km/h (2 Bft) 97,87 %
30.03.2017 03:20 9,1 C 79 % 1025,3 hPa 0,0 l/m 8,8 km/h (2 Bft) SW 222 0 min 0,000 mm 0,0 UV-I 0 W/m 5,7 C 7,4 C 14,5 km/h (3 Bft) 93,62 %
30.03.2017 03:22 9,2 C 79 % 1025,2 hPa 0,0 l/m 8,7 km/h (2 Bft) SW 234 0 min 0,000 mm 0,0 UV-I 0 W/m 5,8 C 7,5 C 11,3 km/h (2 Bft) 94,00 %
30.03.2017 03:24 9,2 C 79 % 1025,3 hPa 0,0 l/m 9,6 km/h (2 Bft) SW 222 0 min 0,000 mm 0,0 UV-I 0 W/m 5,8 C 7,0 C 14,5 km/h (3 Bft) 95,83 %
30.03.2017 03:26 9,2 C 79 % 1025,3 hPa 0,0 l/m 8,8 km/h (2 Bft) S-SW 211 0 min 0,000 mm 0,0 UV-I 0 W/m 5,8 C 7,5 C 11,3 km/h (2 Bft) 97,87 %
30.03.2017 03:28 9,2 C 79 % 1025,3 hPa 0,0 l/m 8,6 km/h (2 Bft) S-SW 196 0 min 0,000 mm 0,0 UV-I 0 W/m 5,8 C 7,6 C 11,3 km/h (2 Bft) 97,87 %
30.03.2017 03:30 9,2 C 79 % 1025,2 hPa 0,0 l/m 8,3 km/h (2 Bft) SW 224 0 min 0,000 mm 0,0 UV-I 0 W/m 5,8 C 7,8 C 12,9 km/h (3 Bft) 97,87 %
30.03.2017 03:32 9,2 C 79 % 1025,2 hPa 0,0 l/m 8,8 km/h (2 Bft) S-SW 199 0 min 0,000 mm 0,0 UV-I 0 W/m 5,8 C 7,5 C 14,5 km/h (3 Bft) 100,00 %
30.03.2017 03:34 9,2 C 79 % 1025,3 hPa 0,0 l/m 7,8 km/h (2 Bft) S-SW 209 0 min 0,000 mm 0,0 UV-I 0 W/m 5,8 C 8,2 C 11,3 km/h (2 Bft) 97,87 %
30.03.2017 03:36 9,3 C 79 % 1025,3 hPa 0,0 l/m 6,7 km/h (2 Bft) SW 221 0 min 0,000 mm 0,0 UV-I 0 W/m 5,8 C 9,1 C 9,7 km/h (2 Bft) 100,00 %
30.03.2017 03:38 9,3 C 79 % 1025,3 hPa 0,0 l/m 6,6 km/h (2 Bft) S-SW 205 0 min 0,000 mm 0,0 UV-I 0 W/m 5,8 C 9,2 C 11,3 km/h (2 Bft) 95,74 %
30.03.2017 03:40 9,3 C 79 % 1025,3 hPa 0,0 l/m 7,3 km/h (2 Bft) S 190 0 min 0,000 mm 0,0 UV-I 0 W/m 5,8 C 8,6 C 11,3 km/h (2 Bft) 97,87 %
30.03.2017 03:42 9,3 C 79 % 1025,3 hPa 0,0 l/m 8,4 km/h (2 Bft) S-SW 196 0 min 0,000 mm 0,0 UV-I 0 W/m 5,8 C 7,8 C 12,9 km/h (3 Bft) 100,00 %
30.03.2017 03:44 9,3 C 79 % 1025,2 hPa 0,0 l/m 8,3 km/h (2 Bft) S-SW 209 0 min 0,000 mm 0,0 UV-I 0 W/m 5,8 C 7,9 C 12,9 km/h (3 Bft) 97,87 %
30.03.2017 03:46 9,3 C 79 % 1025,2 hPa 0,0 l/m 10,2 km/h (2 Bft) S-SW 207 0 min 0,000 mm 0,0 UV-I 0 W/m 5,8 C 6,7 C 12,9 km/h (3 Bft) 97,87 %
30.03.2017 03:48 9,3 C 79 % 1025,3 hPa 0,0 l/m 8,1 km/h (2 Bft) S-SW 207 0 min 0,000 mm 0,0 UV-I 0 W/m 5,8 C 8,0 C 11,3 km/h (2 Bft) 100,00 %
30.03.2017 03:50 9,3 C 79 % 1025,2 hPa 0,0 l/m 8,7 km/h (2 Bft) S-SW 202 0 min 0,000 mm 0,0 UV-I 0 W/m 5,8 C 7,6 C 11,3 km/h (2 Bft) 95,74 %
30.03.2017 03:52 9,4 C 79 % 1025,3 hPa 0,0 l/m 9,2 km/h (2 Bft) S-SW 197 0 min 0,000 mm 0,0 UV-I 0 W/m 5,9 C 7,4 C 11,3 km/h (2 Bft) 98,00 %
30.03.2017 03:54 9,4 C 79 % 1025,2 hPa 0,0 l/m 7,9 km/h (2 Bft) SW 225 0 min 0,000 mm 0,0 UV-I 0 W/m 5,9 C 8,3 C 9,7 km/h (2 Bft) 95,74 %
30.03.2017 03:56 9,4 C 79 % 1025,3 hPa 0,0 l/m 8,4 km/h (2 Bft) S-SW 208 0 min 0,000 mm 0,0 UV-I 0 W/m 5,9 C 7,9 C 11,3 km/h (2 Bft) 94,00 %
30.03.2017 03:58 9,4 C 79 % 1025,2 hPa 0,0 l/m 8,1 km/h (2 Bft) SW 214 0 min 0,000 mm 0,0 UV-I 0 W/m 5,9 C 8,2 C 11,3 km/h (2 Bft) 98,00 %
30.03.2017 04:00 9,4 C 79 % 1025,3 hPa 0,0 l/m 8,9 km/h (2 Bft) SW 216 0 min 0,026 mm 0,0 UV-I 0 W/m 5,9 C 7,6 C 12,9 km/h (3 Bft) 94,87 %
30.03.2017 04:02 9,4 C 79 % 1025,2 hPa 0,0 l/m 9,7 km/h (2 Bft) S-SW 195 0 min 0,000 mm 0,0 UV-I 0 W/m 5,9 C 7,1 C 12,9 km/h (3 Bft) 100,00 %
30.03.2017 04:04 9,4 C 79 % 1025,3 hPa 0,0 l/m 8,2 km/h (2 Bft) S-SW 209 0 min 0,000 mm 0,0 UV-I 0 W/m 5,9 C 8,1 C 11,3 km/h (2 Bft) 96,15 %
30.03.2017 04:06 9,4 C 79 % 1025,2 hPa 0,0 l/m 7,7 km/h (2 Bft) S-SW 207 0 min 0,000 mm 0,0 UV-I 0 W/m 5,9 C 8,4 C 11,3 km/h (2 Bft) 95,83 %
30.03.2017 04:08 9,4 C 79 % 1025,3 hPa 0,0 l/m 7,3 km/h (2 Bft) SW 221 0 min 0,000 mm 0,0 UV-I 0 W/m 5,9 C 8,7 C 11,3 km/h (2 Bft) 97,87 %
30.03.2017 04:10 9,4 C 79 % 1025,3 hPa 0,0 l/m 7,0 km/h (2 Bft) S-SW 207 0 min 0,000 mm 0,0 UV-I 0 W/m 5,9 C 9,0 C 9,7 km/h (2 Bft) 95,74 %
30.03.2017 04:12 9,4 C 79 % 1025,3 hPa 0,0 l/m 5,5 km/h (1 Bft) W-SW 237 0 min 0,000 mm 0,0 UV-I 0 W/m 5,9 C 9,4 C 8,0 km/h (2 Bft) 97,87 %
30.03.2017 04:14 9,3 C 79 % 1025,3 hPa 0,0 l/m 5,4 km/h (1 Bft) SW 225 0 min 0,000 mm 0,0 UV-I 0 W/m 5,8 C 9,3 C 8,0 km/h (2 Bft) 94,74 %
30.03.2017 04:16 9,3 C 79 % 1025,3 hPa 0,0 l/m 5,9 km/h (2 Bft) W-SW 244 0 min 0,000 mm 0,0 UV-I 0 W/m 5,8 C 9,3 C 8,0 km/h (2 Bft) 95,74 %
30.03.2017 04:18 9,3 C 80 % 1025,3 hPa 0,0 l/m 6,7 km/h (2 Bft) W-SW 241 0 min 0,000 mm 0,0 UV-I 0 W/m 6,0 C 9,1 C 11,3 km/h (2 Bft) 97,87 %
30.03.2017 04:20 9,3 C 80 % 1025,3 hPa 0,0 l/m 6,8 km/h (2 Bft) SW 232 0 min 0,000 mm 0,0 UV-I 0 W/m 6,0 C 9,0 C 11,3 km/h (2 Bft) 93,62 %
30.03.2017 04:22 9,3 C 80 % 1025,3 hPa 0,0 l/m 8,9 km/h (2 Bft) SW 234 0 min 0,000 mm 0,0 UV-I 0 W/m 6,0 C 7,5 C 12,9 km/h (3 Bft) 95,74 %
30.03.2017 04:24 9,2 C 80 % 1025,3 hPa 0,0 l/m 7,6 km/h (2 Bft) W-SW 242 0 min 0,000 mm 0,0 UV-I 0 W/m 5,9 C 8,3 C 9,7 km/h (2 Bft) 96,00 %
30.03.2017 04:26 9,2 C 80 % 1025,3 hPa 0,0 l/m 7,1 km/h (2 Bft) S-SW 210 0 min 0,000 mm 0,0 UV-I 0 W/m 5,9 C 8,7 C 11,3 km/h (2 Bft) 97,87 %
30.03.2017 04:28 9,2 C 80 % 1025,3 hPa 0,0 l/m 6,9 km/h (2 Bft) W-SW 244 0 min 0,000 mm 0,0 UV-I 0 W/m 5,9 C 8,8 C 9,7 km/h (2 Bft) 95,74 %
30.03.2017 04:30 9,2 C 80 % 1025,3 hPa 0,0 l/m 5,4 km/h (1 Bft) S-SW 208 0 min 0,000 mm 0,0 UV-I 0 W/m 5,9 C 9,2 C 8,0 km/h (2 Bft) 93,62 %
30.03.2017 04:32 9,2 C 80 % 1025,4 hPa 0,0 l/m 5,8 km/h (2 Bft) SW 234 0 min 0,000 mm 0,0 UV-I 0 W/m 5,9 C 9,2 C 8,0 km/h (2 Bft) 96,00 %
30.03.2017 04:34 9,2 C 80 % 1025,4 hPa 0,0 l/m 5,9 km/h (2 Bft) SW 234 0 min 0,000 mm 0,0 UV-I 0 W/m 5,9 C 9,2 C 8,0 km/h (2 Bft) 91,49 %
30.03.2017 04:36 9,2 C 80 % 1025,4 hPa 0,0 l/m 5,3 km/h (1 Bft) SW 236 0 min 0,000 mm 0,0 UV-I 0 W/m 5,9 C 9,2 C 8,0 km/h (2 Bft) 97,87 %
30.03.2017 04:38 9,2 C 80 % 1025,3 hPa 0,0 l/m 6,0 km/h (2 Bft) SW 223 0 min 0,000 mm 0,0 UV-I 0 W/m 5,9 C 9,2 C 8,0 km/h (2 Bft) 94,44 %
30.03.2017 04:40 9,2 C 80 % 1025,4 hPa 0,0 l/m 5,3 km/h (1 Bft) SW 221 0 min 0,000 mm 0,0 UV-I 0 W/m 5,9 C 9,2 C 8,0 km/h (2 Bft) 98,00 %
30.03.2017 04:42 9,1 C 80 % 1025,4 hPa 0,0 l/m 4,5 km/h (1 Bft) SW 233 0 min 0,000 mm 0,0 UV-I 0 W/m 5,8 C 9,1 C 6,4 km/h (2 Bft) 97,87 %
30.03.2017 04:44 9,2 C 80 % 1025,3 hPa 0,0 l/m 4,8 km/h (1 Bft) SW 215 0 min 0,000 mm 0,0 UV-I 0 W/m 5,9 C 9,2 C 8,0 km/h (2 Bft) 94,00 %
30.03.2017 04:46 9,2 C 80 % 1025,3 hPa 0,0 l/m 4,6 km/h (1 Bft) SW 227 0 min 0,000 mm 0,0 UV-I 0 W/m 5,9 C 9,2 C 8,0 km/h (2 Bft) 97,87 %
30.03.2017 04:48 9,2 C 80 % 1025,4 hPa 0,0 l/m 4,2 km/h (1 Bft) S-SW 213 0 min 0,000 mm 0,0 UV-I 0 W/m 5,9 C 9,2 C 4,8 km/h (1 Bft) 97,87 %
30.03.2017 04:50 9,2 C 80 % 1025,4 hPa 0,0 l/m 5,6 km/h (1 Bft) SW 215 0 min 0,000 mm 0,0 UV-I 0 W/m 5,9 C 9,2 C 8,0 km/h (2 Bft) 95,74 %
30.03.2017 04:52 9,3 C 80 % 1025,4 hPa 0,0 l/m 5,9 km/h (2 Bft) SW 216 0 min 0,000 mm 0,0 UV-I 0 W/m 6,0 C 9,3 C 8,0 km/h (2 Bft) 96,00 %
30.03.2017 04:54 9,3 C 80 % 1025,4 hPa 0,0 l/m 5,3 km/h (1 Bft) SW 234 0 min 0,000 mm 0,0 UV-I 0 W/m 6,0 C 9,3 C 8,0 km/h (2 Bft) 95,74 %
30.03.2017 04:56 9,3 C 80 % 1025,4 hPa 0,0 l/m 4,1 km/h (1 Bft) SW 227 0 min 0,000 mm 0,0 UV-I 0 W/m 6,0 C 9,3 C 6,4 km/h (2 Bft) 93,62 %
30.03.2017 04:58 9,3 C 80 % 1025,4 hPa 0,0 l/m 4,1 km/h (1 Bft) SW 219 0 min 0,000 mm 0,0 UV-I 0 W/m 6,0 C 9,3 C 6,4 km/h (2 Bft) 95,74 %
30.03.2017 05:00 9,4 C 80 % 1025,4 hPa 0,0 l/m 4,5 km/h (1 Bft) W 259 0 min 0,025 mm 0,0 UV-I 0 W/m 6,1 C 9,4 C 8,0 km/h (2 Bft) 93,75 %
30.03.2017 05:02 9,4 C 80 % 1025,5 hPa 0,0 l/m 4,1 km/h (1 Bft) SW 218 0 min 0,000 mm 0,0 UV-I 0 W/m 6,1 C 9,4 C 6,4 km/h (2 Bft) 87,23 %
30.03.2017 05:04 9,4 C 80 % 1025,5 hPa 0,0 l/m 4,8 km/h (1 Bft) SW 230 0 min 0,000 mm 0,0 UV-I 0 W/m 6,1 C 9,4 C 6,4 km/h (2 Bft) 97,87 %
30.03.2017 05:06 9,4 C 80 % 1025,4 hPa 0,0 l/m 5,3 km/h (1 Bft) SW 225 0 min 0,000 mm 0,0 UV-I 0 W/m 6,1 C 9,4 C 8,0 km/h (2 Bft) 95,74 %
30.03.2017 05:08 9,4 C 80 % 1025,5 hPa 0,0 l/m 5,8 km/h (2 Bft) SW 227 0 min 0,000 mm 0,0 UV-I 0 W/m 6,1 C 9,4 C 9,7 km/h (2 Bft) 97,87 %
30.03.2017 05:10 9,4 C 80 % 1025,5 hPa 0,0 l/m 5,3 km/h (1 Bft) SW 229 0 min 0,000 mm 0,0 UV-I 0 W/m 6,1 C 9,4 C 8,0 km/h (2 Bft) 95,83 %
30.03.2017 05:12 9,4 C 80 % 1025,5 hPa 0,0 l/m 4,8 km/h (1 Bft) SW 233 0 min 0,000 mm 0,0 UV-I 0 W/m 6,1 C 9,4 C 8,0 km/h (2 Bft) 97,30 %
30.03.2017 05:14 9,4 C 80 % 1025,5 hPa 0,0 l/m 4,0 km/h (1 Bft) SW 234 0 min 0,000 mm 0,0 UV-I 0 W/m 6,1 C 9,4 C 8,0 km/h (2 Bft) 93,62 %
30.03.2017 05:16 9,5 C 80 % 1025,5 hPa 0,0 l/m 4,6 km/h (1 Bft) W-SW 238 0 min 0,000 mm 0,0 UV-I 0 W/m 6,2 C 9,5 C 6,4 km/h (2 Bft) 93,62 %
30.03.2017 05:18 9,5 C 79 % 1025,5 hPa 0,0 l/m 4,2 km/h (1 Bft) W-SW 238 0 min 0,000 mm 0,0 UV-I 0 W/m 6,0 C 9,5 C 6,4 km/h (2 Bft) 98,00 %
30.03.2017 05:20 9,5 C 79 % 1025,5 hPa 0,0 l/m 4,2 km/h (1 Bft) W-SW 237 0 min 0,000 mm 0,0 UV-I 0 W/m 6,0 C 9,5 C 6,4 km/h (2 Bft) 91,67 %
30.03.2017 05:22 9,5 C 79 % 1025,6 hPa 0,0 l/m 4,1 km/h (1 Bft) W-SW 238 0 min 0,000 mm 0,0 UV-I 0 W/m 6,0 C 9,5 C 6,4 km/h (2 Bft) 89,36 %
30.03.2017 05:24 9,5 C 79 % 1025,6 hPa 0,0 l/m 4,7 km/h (1 Bft) SW 233 0 min 0,000 mm 0,0 UV-I 0 W/m 6,0 C 9,5 C 6,4 km/h (2 Bft) 93,75 %
30.03.2017 05:26 9,5 C 79 % 1025,6 hPa 0,0 l/m 4,3 km/h (1 Bft) SW 232 0 min 0,000 mm 0,0 UV-I 0 W/m 6,0 C 9,5 C 6,4 km/h (2 Bft) 95,74 %
30.03.2017 05:28 9,5 C 79 % 1025,6 hPa 0,0 l/m 4,3 km/h (1 Bft) SW 234 0 min 0,000 mm 0,0 UV-I 0 W/m 6,0 C 9,5 C 8,0 km/h (2 Bft) 95,74 %
30.03.2017 05:30 9,5 C 79 % 1025,6 hPa 0,0 l/m 4,5 km/h (1 Bft) SW 232 0 min 0,000 mm 0,0 UV-I 0 W/m 6,0 C 9,5 C 6,4 km/h (2 Bft) 95,74 %
30.03.2017 05:32 9,6 C 79 % 1025,6 hPa 0,0 l/m 5,0 km/h (1 Bft) SW 232 0 min 0,000 mm 0,0 UV-I 0 W/m 6,1 C 9,6 C 8,0 km/h (2 Bft) 95,74 %
30.03.2017 05:34 9,6 C 79 % 1025,6 hPa 0,0 l/m 4,9 km/h (1 Bft) SW 230 0 min 0,000 mm 0,0 UV-I 0 W/m 6,1 C 9,6 C 6,4 km/h (2 Bft) 97,87 %
30.03.2017 05:36 9,6 C 79 % 1025,6 hPa 0,0 l/m 5,1 km/h (1 Bft) SW 228 0 min 0,000 mm 0,0 UV-I 0 W/m 6,1 C 9,6 C 8,0 km/h (2 Bft) 100,00 %
30.03.2017 05:38 9,6 C 79 % 1025,6 hPa 0,0 l/m 5,4 km/h (1 Bft) SW 225 0 min 0,000 mm 0,0 UV-I 0 W/m 6,1 C 9,6 C 9,7 km/h (2 Bft) 100,00 %
30.03.2017 05:40 9,6 C 79 % 1025,6 hPa 0,0 l/m 4,9 km/h (1 Bft) SW 229 0 min 0,000 mm 0,0 UV-I 0 W/m 6,1 C 9,6 C 8,0 km/h (2 Bft) 95,74 %
30.03.2017 05:42 9,6 C 79 % 1025,6 hPa 0,0 l/m 4,9 km/h (1 Bft) SW 223 0 min 0,000 mm 0,0 UV-I 0 W/m 6,1 C 9,6 C 6,4 km/h (2 Bft) 100,00 %
30.03.2017 05:44 9,7 C 79 % 1025,6 hPa 0,0 l/m 5,9 km/h (2 Bft) SW 231 0 min 0,000 mm 0,0 UV-I 0 W/m 6,2 C 9,7 C 9,7 km/h (2 Bft) 100,00 %
30.03.2017 05:46 9,6 C 79 % 1025,6 hPa 0,0 l/m 5,0 km/h (1 Bft) SW 234 0 min 0,000 mm 0,0 UV-I 0 W/m 6,1 C 9,6 C 8,0 km/h (2 Bft) 100,00 %
30.03.2017 05:48 9,6 C 79 % 1025,6 hPa 0,0 l/m 5,5 km/h (1 Bft) W-SW 238 0 min 0,000 mm 0,0 UV-I 0 W/m 6,1 C 9,6 C 9,7 km/h (2 Bft) 100,00 %
30.03.2017 05:50 9,7 C 79 % 1025,7 hPa 0,0 l/m 5,3 km/h (1 Bft) SW 221 0 min 0,000 mm 0,0 UV-I 0 W/m 6,2 C 9,7 C 6,4 km/h (2 Bft) 97,87 %
30.03.2017 05:52 9,7 C 79 % 1025,7 hPa 0,0 l/m 5,4 km/h (1 Bft) SW 227 0 min 0,000 mm 0,0 UV-I 0 W/m 6,2 C 9,7 C 9,7 km/h (2 Bft) 100,00 %
30.03.2017 05:54 9,7 C 79 % 1025,7 hPa 0,0 l/m 5,5 km/h (1 Bft) SW 228 0 min 0,000 mm 0,0 UV-I 0 W/m 6,2 C 9,7 C 8,0 km/h (2 Bft) 98,11 %
30.03.2017 05:56 9,7 C 79 % 1025,7 hPa 0,0 l/m 5,4 km/h (1 Bft) SW 220 0 min 0,000 mm 0,0 UV-I 0 W/m 6,2 C 9,7 C 8,0 km/h (2 Bft) 100,00 %
30.03.2017 05:58 9,7 C 79 % 1025,7 hPa 0,0 l/m 4,1 km/h (1 Bft) SW 220 0 min 0,000 mm 0,0 UV-I 0 W/m 6,2 C 9,7 C 6,4 km/h (2 Bft) 100,00 %
30.03.2017 06:00 9,7 C 79 % 1025,7 hPa 0,0 l/m 4,2 km/h (1 Bft) SW 221 0 min 0,025 mm 0,0 UV-I 0 W/m 6,2 C 9,7 C 4,8 km/h (1 Bft) 100,00 %
30.03.2017 06:02 9,7 C 79 % 1025,7 hPa 0,0 l/m 4,5 km/h (1 Bft) SW 224 0 min 0,000 mm 0,0 UV-I 0 W/m 6,2 C 9,7 C 8,0 km/h (2 Bft) 97,87 %
30.03.2017 06:04 9,7 C 79 % 1025,7 hPa 0,0 l/m 5,9 km/h (2 Bft) SW 229 0 min 0,000 mm 0,0 UV-I 0 W/m 6,2 C 9,7 C 8,0 km/h (2 Bft) 100,00 %
30.03.2017 06:06 9,7 C 79 % 1025,7 hPa 0,0 l/m 4,5 km/h (1 Bft) SW 229 0 min 0,000 mm 0,0 UV-I 0 W/m 6,2 C 9,7 C 6,4 km/h (2 Bft) 95,74 %
30.03.2017 06:08 9,7 C 79 % 1025,8 hPa 0,0 l/m 2,8 km/h (1 Bft) SW 229 0 min 0,000 mm 0,0 UV-I 0 W/m 6,2 C 9,7 C 6,4 km/h (2 Bft) 100,00 %
30.03.2017 06:10 9,7 C 79 % 1025,8 hPa 0,0 l/m 2,2 km/h (1 Bft) SW 229 0 min 0,000 mm 0,0 UV-I 0 W/m 6,2 C 9,7 C 3,2 km/h (1 Bft) 100,00 %
30.03.2017 06:12 9,7 C 79 % 1025,8 hPa 0,0 l/m 0,2 km/h (0 Bft) SW 229 0 min 0,000 mm 0,0 UV-I 0 W/m 6,2 C 9,7 C 1,6 km/h (1 Bft) 100,00 %
30.03.2017 06:14 9,7 C 79 % 1025,8 hPa 0,0 l/m 0,3 km/h (0 Bft) SW 229 0 min 0,000 mm 0,0 UV-I 0 W/m 6,2 C 9,7 C 1,6 km/h (1 Bft) 100,00 %
30.03.2017 06:16 9,6 C 80 % 1025,8 hPa 0,0 l/m 1,3 km/h (1 Bft) SW 229 0 min 0,000 mm 0,0 UV-I 0 W/m 6,3 C 9,6 C 4,8 km/h (1 Bft) 100,00 %
30.03.2017 06:18 9,5 C 80 % 1025,8 hPa 0,0 l/m 1,3 km/h (1 Bft) SW 229 0 min 0,000 mm 0,0 UV-I 0 W/m 6,2 C 9,5 C 3,2 km/h (1 Bft) 97,87 %
30.03.2017 06:20 9,4 C 81 % 1025,8 hPa 0,0 l/m 1,2 km/h (1 Bft) SW 229 0 min 0,000 mm 0,0 UV-I 0 W/m 6,3 C 9,4 C 3,2 km/h (1 Bft) 100,00 %
30.03.2017 06:22 9,4 C 81 % 1025,8 hPa 0,0 l/m 1,8 km/h (1 Bft) SW 229 0 min 0,000 mm 0,0 UV-I 0 W/m 6,3 C 9,4 C 3,2 km/h (1 Bft) 97,87 %
30.03.2017 06:24 9,3 C 81 % 1025,8 hPa 0,0 l/m 0,0 km/h (0 Bft) SW 229 0 min 0,000 mm 0,0 UV-I 0 W/m 6,2 C 9,3 C 0,0 km/h (0 Bft) 93,62 %
30.03.2017 06:26 9,4 C 81 % 1025,8 hPa 0,0 l/m 0,6 km/h (0 Bft) SW 229 0 min 0,000 mm 0,0 UV-I 0 W/m 6,3 C 9,4 C 3,2 km/h (1 Bft) 100,00 %
30.03.2017 06:28 9,4 C 80 % 1025,8 hPa 0,0 l/m 0,3 km/h (0 Bft) SW 229 0 min 0,000 mm 0,0 UV-I 0 W/m 6,1 C 9,4 C 1,6 km/h (1 Bft) 97,87 %
30.03.2017 06:30 9,5 C 80 % 1025,8 hPa 0,0 l/m 0,1 km/h (0 Bft) SW 229 0 min 0,000 mm 0,0 UV-I 0 W/m 6,2 C 9,5 C 1,6 km/h (1 Bft) 100,00 %
30.03.2017 06:32 9,6 C 80 % 1025,8 hPa 0,0 l/m 0,8 km/h (0 Bft) SW 229 0 min 0,000 mm 0,0 UV-I 0 W/m 6,3 C 9,6 C 3,2 km/h (1 Bft) 100,00 %
30.03.2017 06:34 9,6 C 80 % 1025,7 hPa 0,0 l/m 1,1 km/h (1 Bft) SW 229 0 min 0,000 mm 0,0 UV-I 0 W/m 6,3 C 9,6 C 3,2 km/h (1 Bft) 100,00 %
30.03.2017 06:36 9,6 C 80 % 1025,8 hPa 0,0 l/m 0,0 km/h (0 Bft) SW 229 0 min 0,000 mm 0,0 UV-I 4 W/m 6,3 C 9,6 C 0,0 km/h (0 Bft) 97,87 %
30.03.2017 06:38 9,5 C 80 % 1025,8 hPa 0,0 l/m 0,3 km/h (0 Bft) SW 229 0 min 0,000 mm 0,0 UV-I 5 W/m 6,2 C 9,5 C 3,2 km/h (1 Bft) 97,87 %
30.03.2017 06:40 9,5 C 80 % 1025,8 hPa 0,0 l/m 0,4 km/h (0 Bft) SW 229 0 min 0,000 mm 0,0 UV-I 5 W/m 6,2 C 9,5 C 1,6 km/h (1 Bft) 100,00 %
30.03.2017 06:42 9,4 C 81 % 1025,8 hPa 0,0 l/m 0,6 km/h (0 Bft) SW 229 0 min 0,000 mm 0,0 UV-I 6 W/m 6,3 C 9,4 C 1,6 km/h (1 Bft) 97,87 %
30.03.2017 06:44 9,4 C 81 % 1025,8 hPa 0,0 l/m 0,5 km/h (0 Bft) SW 229 0 min 0,000 mm 0,0 UV-I 7 W/m 6,3 C 9,4 C 1,6 km/h (1 Bft) 95,74 %
30.03.2017 06:46 9,4 C 81 % 1025,8 hPa 0,0 l/m 1,1 km/h (1 Bft) SW 229 0 min 0,000 mm 0,0 UV-I 7 W/m 6,3 C 9,4 C 3,2 km/h (1 Bft) 100,00 %
30.03.2017 06:48 9,4 C 80 % 1025,8 hPa 0,0 l/m 1,5 km/h (1 Bft) SW 229 0 min 0,000 mm 0,0 UV-I 8 W/m 6,1 C 9,4 C 3,2 km/h (1 Bft) 95,74 %
30.03.2017 06:50 9,5 C 80 % 1025,8 hPa 0,0 l/m 2,3 km/h (1 Bft) SW 229 0 min 0,000 mm 0,0 UV-I 9 W/m 6,2 C 9,5 C 3,2 km/h (1 Bft) 97,87 %
30.03.2017 06:52 9,6 C 80 % 1025,9 hPa 0,0 l/m 2,0 km/h (1 Bft) SW 229 0 min 0,000 mm 0,0 UV-I 9 W/m 6,3 C 9,6 C 3,2 km/h (1 Bft) 100,00 %
30.03.2017 06:54 9,6 C 80 % 1025,9 hPa 0,0 l/m 1,3 km/h (1 Bft) SW 229 0 min 0,000 mm 0,0 UV-I 10 W/m 6,3 C 9,6 C 3,2 km/h (1 Bft) 97,87 %
30.03.2017 06:56 9,5 C 80 % 1025,8 hPa 0,0 l/m 0,1 km/h (0 Bft) SW 229 2 min 0,000 mm 0,0 UV-I 11 W/m 6,2 C 9,5 C 1,6 km/h (1 Bft) 98,00 %
30.03.2017 06:58 9,4 C 81 % 1025,8 hPa 0,0 l/m 1,4 km/h (1 Bft) SW 229 0 min 0,000 mm 0,0 UV-I 11 W/m 6,3 C 9,4 C 3,2 km/h (1 Bft) 97,87 %
30.03.2017 07:00 9,3 C 81 % 1025,9 hPa 0,0 l/m 0,1 km/h (0 Bft) SW 229 0 min 0,000 mm 0,0 UV-I 12 W/m 6,2 C 9,3 C 1,6 km/h (1 Bft) 100,00 %
30.03.2017 07:02 9,3 C 82 % 1025,9 hPa 0,0 l/m 0,2 km/h (0 Bft) SW 229 0 min 0,000 mm 0,0 UV-I 12 W/m 6,4 C 9,3 C 1,6 km/h (1 Bft) 95,74 %
30.03.2017 07:04 9,3 C 81 % 1025,9 hPa 0,0 l/m 0,0 km/h (0 Bft) SW 229 0 min 0,000 mm 0,0 UV-I 13 W/m 6,2 C 9,3 C 0,0 km/h (0 Bft) 95,74 %
30.03.2017 07:06 9,3 C 82 % 1025,9 hPa 0,0 l/m 0,0 km/h (0 Bft) SW 229 0 min 0,000 mm 0,0 UV-I 14 W/m 6,4 C 9,3 C 0,0 km/h (0 Bft) 91,49 %
30.03.2017 07:08 9,3 C 81 % 1025,9 hPa 0,0 l/m 0,8 km/h (0 Bft) SW 229 0 min 0,000 mm 0,0 UV-I 16 W/m 6,2 C 9,3 C 4,8 km/h (1 Bft) 94,74 %
30.03.2017 07:10 9,3 C 82 % 1025,9 hPa 0,0 l/m 1,9 km/h (1 Bft) SW 229 0 min 0,000 mm 0,0 UV-I 16 W/m 6,4 C 9,3 C 3,2 km/h (1 Bft) 95,74 %
30.03.2017 07:12 9,3 C 81 % 1026,0 hPa 0,0 l/m 2,2 km/h (1 Bft) SW 229 0 min 0,000 mm 0,0 UV-I 18 W/m 6,2 C 9,3 C 4,8 km/h (1 Bft) 93,62 %
30.03.2017 07:14 9,4 C 81 % 1026,0 hPa 0,0 l/m 0,8 km/h (0 Bft) SW 229 0 min 0,000 mm 0,0 UV-I 19 W/m 6,3 C 9,4 C 1,6 km/h (1 Bft) 94,00 %
30.03.2017 07:16 9,4 C 81 % 1026,0 hPa 0,0 l/m 1,4 km/h (1 Bft) SW 229 0 min 0,000 mm 0,0 UV-I 21 W/m 6,3 C 9,4 C 3,2 km/h (1 Bft) 95,74 %
30.03.2017 07:18 9,5 C 81 % 1026,0 hPa 0,0 l/m 1,8 km/h (1 Bft) SW 229 0 min 0,000 mm 0,0 UV-I 24 W/m 6,4 C 9,5 C 3,2 km/h (1 Bft) 95,74 %
30.03.2017 07:20 9,5 C 81 % 1026,0 hPa 0,0 l/m 2,9 km/h (1 Bft) SW 232 0 min 0,000 mm 0,0 UV-I 26 W/m 6,4 C 9,5 C 4,8 km/h (1 Bft) 92,00 %
30.03.2017 07:22 9,6 C 80 % 1026,0 hPa 0,0 l/m 1,5 km/h (1 Bft) SW 232 0 min 0,000 mm 0,0 UV-I 27 W/m 6,3 C 9,6 C 4,8 km/h (1 Bft) 89,58 %
30.03.2017 07:24 9,6 C 80 % 1026,0 hPa 0,0 l/m 0,3 km/h (0 Bft) SW 232 0 min 0,000 mm 0,0 UV-I 30 W/m 6,3 C 9,6 C 3,2 km/h (1 Bft) 95,74 %
30.03.2017 07:26 9,6 C 80 % 1026,0 hPa 0,0 l/m 0,6 km/h (0 Bft) SW 232 0 min 0,000 mm 0,0 UV-I 32 W/m 6,3 C 9,6 C 1,6 km/h (1 Bft) 95,74 %
30.03.2017 07:28 9,5 C 82 % 1026,1 hPa 0,0 l/m 0,5 km/h (0 Bft) SW 232 0 min 0,000 mm 0,0 UV-I 35 W/m 6,6 C 9,5 C 3,2 km/h (1 Bft) 93,62 %
30.03.2017 07:30 9,4 C 82 % 1026,1 hPa 0,0 l/m 1,5 km/h (1 Bft) SW 232 0 min 0,000 mm 0,0 UV-I 38 W/m 6,5 C 9,4 C 3,2 km/h (1 Bft) 91,49 %
30.03.2017 07:32 9,4 C 82 % 1026,1 hPa 0,0 l/m 0,1 km/h (0 Bft) SW 232 0 min 0,000 mm 0,0 UV-I 40 W/m 6,5 C 9,4 C 1,6 km/h (1 Bft) 91,49 %
30.03.2017 07:34 9,4 C 81 % 1026,1 hPa 0,0 l/m 0,9 km/h (0 Bft) SW 232 0 min 0,000 mm 0,0 UV-I 41 W/m 6,3 C 9,4 C 3,2 km/h (1 Bft) 91,49 %
30.03.2017 07:36 9,6 C 81 % 1026,1 hPa 0,0 l/m 0,1 km/h (0 Bft) SW 232 0 min 0,000 mm 0,0 UV-I 44 W/m 6,5 C 9,6 C 1,6 km/h (1 Bft) 97,87 %
30.03.2017 07:38 9,6 C 81 % 1026,1 hPa 0,0 l/m 0,0 km/h (0 Bft) SW 232 0 min 0,000 mm 0,0 UV-I 46 W/m 6,5 C 9,6 C 0,0 km/h (0 Bft) 100,00 %
30.03.2017 07:40 9,7 C 80 % 1026,1 hPa 0,0 l/m 0,5 km/h (0 Bft) SW 232 0 min 0,000 mm 0,0 UV-I 48 W/m 6,4 C 9,7 C 3,2 km/h (1 Bft) 97,87 %
30.03.2017 07:42 9,7 C 80 % 1026,1 hPa 0,0 l/m 0,2 km/h (0 Bft) SW 232 0 min 0,000 mm 0,0 UV-I 50 W/m 6,4 C 9,7 C 1,6 km/h (1 Bft) 95,74 %
30.03.2017 07:44 9,8 C 80 % 1026,1 hPa 0,0 l/m 1,0 km/h (0 Bft) SW 232 0 min 0,000 mm 0,0 UV-I 52 W/m 6,5 C 9,8 C 3,2 km/h (1 Bft) 100,00 %
30.03.2017 07:46 9,8 C 80 % 1026,1 hPa 0,0 l/m 0,6 km/h (0 Bft) SW 232 0 min 0,000 mm 0,0 UV-I 53 W/m 6,5 C 9,8 C 1,6 km/h (1 Bft) 100,00 %
30.03.2017 07:48 9,8 C 80 % 1026,1 hPa 0,0 l/m 0,2 km/h (0 Bft) SW 232 0 min 0,000 mm 0,0 UV-I 53 W/m 6,5 C 9,8 C 1,6 km/h (1 Bft) 100,00 %
30.03.2017 07:50 9,8 C 80 % 1026,1 hPa 0,0 l/m 0,6 km/h (0 Bft) SW 232 0 min 0,000 mm 0,0 UV-I 56 W/m 6,5 C 9,8 C 3,2 km/h (1 Bft) 100,00 %
30.03.2017 07:52 9,8 C 80 % 1026,1 hPa 0,0 l/m 0,8 km/h (0 Bft) SW 232 0 min 0,000 mm 0,0 UV-I 60 W/m 6,5 C 9,8 C 3,2 km/h (1 Bft) 100,00 %
30.03.2017 07:54 9,8 C 80 % 1026,1 hPa 0,0 l/m 1,4 km/h (1 Bft) SW 232 0 min 0,000 mm 0,0 UV-I 60 W/m 6,5 C 9,8 C 4,8 km/h (1 Bft) 91,49 %
30.03.2017 07:56 9,8 C 80 % 1026,2 hPa 0,0 l/m 0,5 km/h (0 Bft) SW 232 0 min 0,000 mm 0,0 UV-I 60 W/m 6,5 C 9,8 C 3,2 km/h (1 Bft) 95,74 %
30.03.2017 07:58 9,8 C 80 % 1026,2 hPa 0,0 l/m 0,2 km/h (0 Bft) SW 232 0 min 0,000 mm 0,0 UV-I 59 W/m 6,5 C 9,8 C 1,6 km/h (1 Bft) 97,87 %
30.03.2017 08:00 9,9 C 80 % 1026,2 hPa 0,0 l/m 0,7 km/h (0 Bft) SW 232 0 min 0,026 mm 0,0 UV-I 58 W/m 6,6 C 9,9 C 3,2 km/h (1 Bft) 97,87 %
30.03.2017 08:02 9,8 C 80 % 1026,2 hPa 0,0 l/m 2,1 km/h (1 Bft) SW 232 0 min 0,000 mm 0,0 UV-I 58 W/m 6,5 C 9,8 C 3,2 km/h (1 Bft) 93,75 %
30.03.2017 08:04 9,9 C 80 % 1026,2 hPa 0,0 l/m 2,1 km/h (1 Bft) SW 232 0 min 0,000 mm 0,0 UV-I 58 W/m 6,6 C 9,9 C 4,8 km/h (1 Bft) 100,00 %
30.03.2017 08:06 9,9 C 80 % 1026,2 hPa 0,0 l/m 1,8 km/h (1 Bft) SW 232 0 min 0,000 mm 0,0 UV-I 58 W/m 6,6 C 9,9 C 4,8 km/h (1 Bft) 100,00 %
30.03.2017 08:08 9,9 C 80 % 1026,2 hPa 0,0 l/m 0,4 km/h (0 Bft) SW 232 0 min 0,000 mm 0,0 UV-I 60 W/m 6,6 C 9,9 C 1,6 km/h (1 Bft) 97,87 %
30.03.2017 08:10 9,9 C 80 % 1026,2 hPa 0,0 l/m 0,1 km/h (0 Bft) SW 232 0 min 0,000 mm 0,0 UV-I 61 W/m 6,6 C 9,9 C 1,6 km/h (1 Bft) 97,87 %
30.03.2017 08:12 9,9 C 80 % 1026,2 hPa 0,0 l/m 0,7 km/h (0 Bft) SW 232 0 min 0,000 mm 0,0 UV-I 59 W/m 6,6 C 9,9 C 1,6 km/h (1 Bft) 95,65 %
30.03.2017 08:14 9,9 C 79 % 1026,2 hPa 0,0 l/m 0,0 km/h (0 Bft) SW 232 0 min 0,000 mm 0,0 UV-I 60 W/m 6,4 C 9,9 C 0,0 km/h (0 Bft) 95,16 %
30.03.2017 08:16 9,9 C 80 % 1026,3 hPa 0,0 l/m 0,0 km/h (0 Bft) SW 232 0 min 0,000 mm 0,0 UV-I 63 W/m 6,6 C 9,9 C 1,6 km/h (1 Bft) 93,62 %
30.03.2017 08:18 10,0 C 80 % 1026,3 hPa 0,0 l/m 0,3 km/h (0 Bft) SW 232 0 min 0,000 mm 0,0 UV-I 66 W/m 6,7 C 10,0 C 1,6 km/h (1 Bft) 91,49 %
30.03.2017 08:20 10,0 C 80 % 1026,3 hPa 0,0 l/m 0,4 km/h (0 Bft) SW 232 0 min 0,000 mm 0,0 UV-I 70 W/m 6,7 C 10,0 C 1,6 km/h (1 Bft) 93,62 %
30.03.2017 08:22 10,1 C 80 % 1026,3 hPa 0,0 l/m 0,0 km/h (0 Bft) SW 232 0 min 0,000 mm 0,0 UV-I 74 W/m 6,8 C 10,1 C 0,0 km/h (0 Bft) 93,62 %
30.03.2017 08:24 10,1 C 80 % 1026,3 hPa 0,0 l/m 0,0 km/h (0 Bft) SW 232 0 min 0,000 mm 0,0 UV-I 77 W/m 6,8 C 10,1 C 0,0 km/h (0 Bft) 97,87 %
30.03.2017 08:26 10,1 C 80 % 1026,3 hPa 0,0 l/m 0,0 km/h (0 Bft) SW 232 0 min 0,000 mm 0,0 UV-I 83 W/m 6,8 C 10,1 C 0,0 km/h (0 Bft) 96,00 %
30.03.2017 08:28 10,1 C 80 % 1026,3 hPa 0,0 l/m 0,0 km/h (0 Bft) SW 232 0 min 0,000 mm 0,0 UV-I 86 W/m 6,8 C 10,1 C 0,0 km/h (0 Bft) 94,00 %
30.03.2017 08:30 10,2 C 80 % 1026,3 hPa 0,0 l/m 0,0 km/h (0 Bft) SW 232 0 min 0,000 mm 0,0 UV-I 86 W/m 6,9 C 10,2 C 0,0 km/h (0 Bft) 97,37 %
30.03.2017 08:32 10,2 C 80 % 1026,3 hPa 0,0 l/m 0,0 km/h (0 Bft) SW 232 0 min 0,000 mm 0,0 UV-I 84 W/m 6,9 C 10,2 C 0,0 km/h (0 Bft) 95,74 %
30.03.2017 08:34 10,2 C 80 % 1026,3 hPa 0,0 l/m 0,0 km/h (0 Bft) SW 232 0 min 0,000 mm 0,0 UV-I 85 W/m 6,9 C 10,2 C 0,0 km/h (0 Bft) 97,87 %
30.03.2017 08:36 10,2 C 79 % 1026,3 hPa 0,0 l/m 0,0 km/h (0 Bft) SW 232 0 min 0,000 mm 0,0 UV-I 86 W/m 6,7 C 10,2 C 0,0 km/h (0 Bft) 95,83 %
30.03.2017 08:38 10,3 C 80 % 1026,3 hPa 0,0 l/m 0,6 km/h (0 Bft) SW 232 0 min 0,000 mm 0,0 UV-I 86 W/m 7,0 C 10,3 C 3,2 km/h (1 Bft) 94,00 %
30.03.2017 08:40 10,3 C 78 % 1026,3 hPa 0,0 l/m 0,3 km/h (0 Bft) SW 232 0 min 0,000 mm 0,0 UV-I 86 W/m 6,6 C 10,3 C 1,6 km/h (1 Bft) 97,87 %
30.03.2017 08:42 10,3 C 78 % 1026,4 hPa 0,0 l/m 0,3 km/h (0 Bft) SW 232 0 min 0,000 mm 0,0 UV-I 86 W/m 6,6 C 10,3 C 1,6 km/h (1 Bft) 96,00 %
30.03.2017 08:44 10,4 C 78 % 1026,4 hPa 0,0 l/m 1,6 km/h (1 Bft) SW 232 0 min 0,000 mm 0,0 UV-I 84 W/m 6,7 C 10,4 C 3,2 km/h (1 Bft) 95,74 %
30.03.2017 08:46 10,4 C 77 % 1026,4 hPa 0,0 l/m 1,2 km/h (1 Bft) SW 232 0 min 0,000 mm 0,0 UV-I 81 W/m 6,5 C 10,4 C 3,2 km/h (1 Bft) 94,74 %
30.03.2017 08:48 10,4 C 78 % 1026,4 hPa 0,0 l/m 0,6 km/h (0 Bft) SW 232 0 min 0,000 mm 0,0 UV-I 77 W/m 6,7 C 10,4 C 1,6 km/h (1 Bft) 96,00 %
30.03.2017 08:50 10,4 C 78 % 1026,4 hPa 0,0 l/m 0,7 km/h (0 Bft) SW 232 0 min 0,000 mm 0,0 UV-I 74 W/m 6,7 C 10,4 C 3,2 km/h (1 Bft) 97,87 %
30.03.2017 08:52 10,4 C 78 % 1026,5 hPa 0,0 l/m 0,0 km/h (0 Bft) SW 232 0 min 0,000 mm 0,0 UV-I 72 W/m 6,7 C 10,4 C 0,0 km/h (0 Bft) 92,00 %
30.03.2017 08:54 10,4 C 78 % 1026,4 hPa 0,0 l/m 0,0 km/h (0 Bft) SW 232 0 min 0,000 mm 0,0 UV-I 72 W/m 6,7 C 10,4 C 0,0 km/h (0 Bft) 97,56 %
30.03.2017 08:56 10,4 C 78 % 1026,5 hPa 0,0 l/m 0,0 km/h (0 Bft) SW 232 0 min 0,000 mm 0,0 UV-I 74 W/m 6,7 C 10,4 C 0,0 km/h (0 Bft) 95,74 %
30.03.2017 08:58 10,5 C 77 % 1026,5 hPa 0,0 l/m 0,0 km/h (0 Bft) SW 232 0 min 0,000 mm 0,0 UV-I 78 W/m 6,6 C 10,5 C 1,6 km/h (1 Bft) 97,87 %
30.03.2017 09:00 10,6 C 77 % 1026,5 hPa 0,0 l/m 0,0 km/h (0 Bft) SW 232 0 min 0,025 mm 0,0 UV-I 84 W/m 6,7 C 10,6 C 1,6 km/h (1 Bft) 96,00 %
30.03.2017 09:02 10,6 C 76 % 1026,5 hPa 0,0 l/m 0,1 km/h (0 Bft) SW 232 0 min 0,000 mm 0,0 UV-I 90 W/m 6,5 C 10,6 C 1,6 km/h (1 Bft) 95,74 %
30.03.2017 09:04 10,6 C 77 % 1026,5 hPa 0,0 l/m 1,0 km/h (0 Bft) SW 232 0 min 0,000 mm 0,0 UV-I 99 W/m 6,7 C 10,6 C 3,2 km/h (1 Bft) 97,87 %
30.03.2017 09:06 10,7 C 77 % 1026,5 hPa 0,0 l/m 2,2 km/h (1 Bft) SW 232 0 min 0,000 mm 0,0 UV-I 105 W/m 6,8 C 10,7 C 3,2 km/h (1 Bft) 91,49 %
30.03.2017 09:08 10,7 C 77 % 1026,5 hPa 0,0 l/m 2,3 km/h (1 Bft) SW 233 0 min 0,000 mm 0,0 UV-I 111 W/m 6,8 C 10,7 C 4,8 km/h (1 Bft) 93,62 %
30.03.2017 09:10 10,7 C 77 % 1026,5 hPa 0,0 l/m 2,2 km/h (1 Bft) SW 233 0 min 0,000 mm 0,0 UV-I 115 W/m 6,8 C 10,7 C 3,2 km/h (1 Bft) 95,74 %
30.03.2017 09:12 10,8 C 77 % 1026,5 hPa 0,0 l/m 2,9 km/h (1 Bft) SW 233 0 min 0,000 mm 0,0 UV-I 116 W/m 6,9 C 10,8 C 4,8 km/h (1 Bft) 93,62 %
30.03.2017 09:14 10,8 C 77 % 1026,5 hPa 0,0 l/m 2,7 km/h (1 Bft) SW 233 0 min 0,000 mm 0,0 UV-I 113 W/m 6,9 C 10,8 C 4,8 km/h (1 Bft) 94,23 %
30.03.2017 09:16 10,8 C 76 % 1026,5 hPa 0,0 l/m 2,9 km/h (1 Bft) SW 234 0 min 0,000 mm 0,0 UV-I 109 W/m 6,7 C 10,8 C 4,8 km/h (1 Bft) 94,87 %
30.03.2017 09:18 10,9 C 76 % 1026,6 hPa 0,0 l/m 2,0 km/h (1 Bft) SW 234 0 min 0,000 mm 0,0 UV-I 106 W/m 6,8 C 10,9 C 4,8 km/h (1 Bft) 92,31 %
30.03.2017 09:20 10,9 C 75 % 1026,6 hPa 0,0 l/m 1,6 km/h (1 Bft) SW 234 0 min 0,000 mm 0,0 UV-I 101 W/m 6,6 C 10,9 C 3,2 km/h (1 Bft) 94,87 %
30.03.2017 09:22 10,9 C 75 % 1026,6 hPa 0,0 l/m 1,4 km/h (1 Bft) SW 234 0 min 0,000 mm 0,0 UV-I 96 W/m 6,6 C 10,9 C 3,2 km/h (1 Bft) 97,87 %
30.03.2017 09:24 10,9 C 75 % 1026,7 hPa 0,0 l/m 2,0 km/h (1 Bft) SW 234 0 min 0,000 mm 0,0 UV-I 95 W/m 6,6 C 10,9 C 3,2 km/h (1 Bft) 93,88 %
30.03.2017 09:26 10,9 C 75 % 1026,7 hPa 0,0 l/m 0,0 km/h (0 Bft) SW 234 0 min 0,000 mm 0,0 UV-I 98 W/m 6,6 C 10,9 C 1,6 km/h (1 Bft) 93,62 %
30.03.2017 09:28 10,9 C 75 % 1026,6 hPa 0,0 l/m 0,9 km/h (0 Bft) SW 234 0 min 0,000 mm 0,0 UV-I 110 W/m 6,6 C 10,9 C 3,2 km/h (1 Bft) 93,62 %
30.03.2017 09:30 10,9 C 75 % 1026,6 hPa 0,0 l/m 0,0 km/h (0 Bft) SW 234 0 min 0,000 mm 0,0 UV-I 123 W/m 6,6 C 10,9 C 0,0 km/h (0 Bft) 91,49 %
30.03.2017 09:32 11,0 C 75 % 1026,6 hPa 0,0 l/m 1,0 km/h (0 Bft) SW 234 0 min 0,000 mm 0,5 UV-I 131 W/m 6,7 C 11,0 C 3,2 km/h (1 Bft) 93,62 %
30.03.2017 09:34 11,0 C 74 % 1026,7 hPa 0,0 l/m 0,0 km/h (0 Bft) SW 234 0 min 0,000 mm 0,5 UV-I 139 W/m 6,5 C 11,0 C 1,6 km/h (1 Bft) 93,62 %
30.03.2017 09:36 11,0 C 74 % 1026,7 hPa 0,0 l/m 0,0 km/h (0 Bft) SW 234 0 min 0,000 mm 0,5 UV-I 150 W/m 6,5 C 11,0 C 1,6 km/h (1 Bft) 94,00 %
30.03.2017 09:38 11,1 C 74 % 1026,7 hPa 0,0 l/m 2,5 km/h (1 Bft) SW 234 0 min 0,000 mm 0,5 UV-I 160 W/m 6,6 C 11,1 C 4,8 km/h (1 Bft) 93,62 %
30.03.2017 09:40 11,1 C 73 % 1026,7 hPa 0,0 l/m 2,6 km/h (1 Bft) SW 234 0 min 0,000 mm 0,5 UV-I 163 W/m 6,4 C 11,1 C 4,8 km/h (1 Bft) 96,00 %
30.03.2017 09:42 11,1 C 74 % 1026,7 hPa 0,0 l/m 1,9 km/h (1 Bft) SW 234 0 min 0,000 mm 0,5 UV-I 158 W/m 6,6 C 11,1 C 3,2 km/h (1 Bft) 97,87 %
30.03.2017 09:44 11,2 C 73 % 1026,7 hPa 0,0 l/m 1,9 km/h (1 Bft) SW 234 0 min 0,000 mm 0,5 UV-I 158 W/m 6,5 C 11,2 C 3,2 km/h (1 Bft) 97,87 %
30.03.2017 09:46 11,2 C 74 % 1026,7 hPa 0,0 l/m 1,1 km/h (1 Bft) SW 234 0 min 0,000 mm 0,5 UV-I 164 W/m 6,7 C 11,2 C 3,2 km/h (1 Bft) 100,00 %
30.03.2017 09:48 11,2 C 73 % 1026,7 hPa 0,0 l/m 0,7 km/h (0 Bft) SW 234 0 min 0,000 mm 0,6 UV-I 169 W/m 6,5 C 11,2 C 3,2 km/h (1 Bft) 95,74 %
30.03.2017 09:50 11,3 C 74 % 1026,7 hPa 0,0 l/m 0,0 km/h (0 Bft) SW 234 0 min 0,000 mm 0,6 UV-I 172 W/m 6,8 C 11,3 C 0,0 km/h (0 Bft) 100,00 %
30.03.2017 09:52 11,3 C 74 % 1026,7 hPa 0,0 l/m 0,0 km/h (0 Bft) SW 234 0 min 0,000 mm 0,6 UV-I 171 W/m 6,8 C 11,3 C 0,0 km/h (0 Bft) 96,00 %
30.03.2017 09:54 11,4 C 74 % 1026,7 hPa 0,0 l/m 0,0 km/h (0 Bft) SW 234 0 min 0,000 mm 0,6 UV-I 171 W/m 6,9 C 11,4 C 0,0 km/h (0 Bft) 97,92 %
30.03.2017 09:56 11,4 C 73 % 1026,8 hPa 0,0 l/m 0,6 km/h (0 Bft) SW 234 0 min 0,000 mm 0,6 UV-I 172 W/m 6,7 C 11,4 C 3,2 km/h (1 Bft) 100,00 %
30.03.2017 09:58 11,5 C 73 % 1026,8 hPa 0,0 l/m 1,8 km/h (1 Bft) SW 234 0 min 0,000 mm 0,6 UV-I 172 W/m 6,8 C 11,5 C 3,2 km/h (1 Bft) 93,62 %
30.03.2017 10:00 11,6 C 73 % 1026,8 hPa 0,0 l/m 0,8 km/h (0 Bft) SW 234 0 min 0,076 mm 0,7 UV-I 175 W/m 6,9 C 11,6 C 4,8 km/h (1 Bft) 95,74 %
30.03.2017 10:02 11,6 C 72 % 1026,8 hPa 0,0 l/m 2,0 km/h (1 Bft) SW 234 0 min 0,000 mm 0,7 UV-I 183 W/m 6,7 C 11,6 C 3,2 km/h (1 Bft) 100,00 %
30.03.2017 10:04 11,6 C 73 % 1026,8 hPa 0,0 l/m 1,0 km/h (0 Bft) SW 234 0 min 0,000 mm 0,7 UV-I 189 W/m 6,9 C 11,6 C 3,2 km/h (1 Bft) 97,87 %
30.03.2017 10:06 11,7 C 73 % 1026,8 hPa 0,0 l/m 2,5 km/h (1 Bft) SW 234 0 min 0,000 mm 0,7 UV-I 190 W/m 7,0 C 11,7 C 4,8 km/h (1 Bft) 97,87 %
30.03.2017 10:08 11,8 C 74 % 1026,8 hPa 0,0 l/m 1,2 km/h (1 Bft) SW 229 0 min 0,000 mm 0,7 UV-I 194 W/m 7,3 C 11,8 C 4,8 km/h (1 Bft) 97,87 %
30.03.2017 10:10 11,8 C 73 % 1026,8 hPa 0,0 l/m 3,1 km/h (1 Bft) SW 229 0 min 0,000 mm 0,7 UV-I 196 W/m 7,1 C 11,8 C 4,8 km/h (1 Bft) 97,87 %
30.03.2017 10:12 11,8 C 73 % 1026,8 hPa 0,0 l/m 2,1 km/h (1 Bft) SW 229 0 min 0,000 mm 0,8 UV-I 199 W/m 7,1 C 11,8 C 4,8 km/h (1 Bft) 100,00 %
30.03.2017 10:14 11,8 C 73 % 1026,8 hPa 0,0 l/m 3,2 km/h (1 Bft) SW 229 0 min 0,000 mm 0,8 UV-I 202 W/m 7,1 C 11,8 C 4,8 km/h (1 Bft) 100,00 %
30.03.2017 10:16 11,9 C 73 % 1026,8 hPa 0,0 l/m 2,6 km/h (1 Bft) SW 229 0 min 0,000 mm 0,8 UV-I 207 W/m 7,2 C 11,9 C 4,8 km/h (1 Bft) 100,00 %
30.03.2017 10:18 11,9 C 73 % 1026,8 hPa 0,0 l/m 2,5 km/h (1 Bft) SW 229 0 min 0,000 mm 0,8 UV-I 213 W/m 7,2 C 11,9 C 4,8 km/h (1 Bft) 100,00 %
30.03.2017 10:20 12,0 C 73 % 1026,8 hPa 0,0 l/m 2,6 km/h (1 Bft) SW 229 0 min 0,000 mm 0,8 UV-I 219 W/m 7,3 C 12,0 C 4,8 km/h (1 Bft) 98,00 %
30.03.2017 10:22 12,0 C 73 % 1026,8 hPa 0,0 l/m 2,0 km/h (1 Bft) SW 229 0 min 0,000 mm 0,9 UV-I 230 W/m 7,3 C 12,0 C 4,8 km/h (1 Bft) 95,74 %
30.03.2017 10:24 12,1 C 72 % 1026,8 hPa 0,0 l/m 1,6 km/h (1 Bft) SW 229 0 min 0,000 mm 0,9 UV-I 241 W/m 7,2 C 12,1 C 3,2 km/h (1 Bft) 97,14 %
30.03.2017 10:26 12,2 C 72 % 1026,8 hPa 0,0 l/m 3,4 km/h (1 Bft) SW 223 0 min 0,000 mm 0,9 UV-I 246 W/m 7,3 C 12,2 C 4,8 km/h (1 Bft) 95,74 %
30.03.2017 10:28 12,2 C 72 % 1026,8 hPa 0,0 l/m 3,6 km/h (1 Bft) SW 223 0 min 0,000 mm 1,0 UV-I 249 W/m 7,3 C 12,2 C 4,8 km/h (1 Bft) 97,87 %
30.03.2017 10:30 12,2 C 72 % 1026,8 hPa 0,0 l/m 4,2 km/h (1 Bft) SW 223 0 min 0,000 mm 1,0 UV-I 252 W/m 7,3 C 12,2 C 6,4 km/h (2 Bft) 100,00 %
30.03.2017 10:32 12,3 C 73 % 1026,8 hPa 0,0 l/m 4,0 km/h (1 Bft) SW 227 0 min 0,000 mm 1,0 UV-I 256 W/m 7,6 C 12,3 C 6,4 km/h (2 Bft) 97,92 %
30.03.2017 10:34 12,3 C 72 % 1026,8 hPa 0,0 l/m 1,7 km/h (1 Bft) SW 227 0 min 0,000 mm 1,0 UV-I 251 W/m 7,4 C 12,3 C 4,8 km/h (1 Bft) 95,74 %
30.03.2017 10:36 12,4 C 72 % 1026,8 hPa 0,0 l/m 2,2 km/h (1 Bft) SW 227 0 min 0,000 mm 1,0 UV-I 248 W/m 7,5 C 12,4 C 3,2 km/h (1 Bft) 100,00 %
30.03.2017 10:38 12,5 C 73 % 1026,9 hPa 0,0 l/m 2,3 km/h (1 Bft) SW 227 0 min 0,000 mm 1,0 UV-I 257 W/m 7,8 C 12,5 C 4,8 km/h (1 Bft) 97,87 %
30.03.2017 10:40 12,6 C 72 % 1026,8 hPa 0,0 l/m 3,7 km/h (1 Bft) SW 222 0 min 0,000 mm 1,1 UV-I 277 W/m 7,7 C 12,6 C 8,0 km/h (2 Bft) 97,87 %
30.03.2017 10:42 12,6 C 72 % 1026,8 hPa 0,0 l/m 4,1 km/h (1 Bft) SW 222 0 min 0,000 mm 1,2 UV-I 294 W/m 7,7 C 12,6 C 6,4 km/h (2 Bft) 97,87 %
30.03.2017 10:44 12,7 C 72 % 1026,8 hPa 0,0 l/m 3,2 km/h (1 Bft) SW 222 0 min 0,000 mm 1,2 UV-I 300 W/m 7,8 C 12,7 C 4,8 km/h (1 Bft) 95,74 %
30.03.2017 10:46 12,8 C 71 % 1026,8 hPa 0,0 l/m 1,9 km/h (1 Bft) SW 221 0 min 0,000 mm 1,2 UV-I 306 W/m 7,7 C 12,8 C 3,2 km/h (1 Bft) 96,00 %
30.03.2017 10:48 12,8 C 70 % 1026,9 hPa 0,0 l/m 5,0 km/h (1 Bft) SW 222 0 min 0,000 mm 1,3 UV-I 310 W/m 7,5 C 12,8 C 8,0 km/h (2 Bft) 100,00 %
30.03.2017 10:50 12,9 C 71 % 1026,9 hPa 0,0 l/m 3,4 km/h (1 Bft) S-SW 194 0 min 0,000 mm 1,3 UV-I 309 W/m 7,8 C 12,9 C 6,4 km/h (2 Bft) 95,74 %
30.03.2017 10:52 13,0 C 69 % 1026,9 hPa 0,0 l/m 2,7 km/h (1 Bft) S-SW 194 0 min 0,000 mm 1,3 UV-I 316 W/m 7,4 C 13,0 C 4,8 km/h (1 Bft) 95,74 %
30.03.2017 10:54 12,9 C 69 % 1026,9 hPa 0,0 l/m 2,3 km/h (1 Bft) S-SW 194 2 min 0,000 mm 1,4 UV-I 336 W/m 7,4 C 12,9 C 4,8 km/h (1 Bft) 97,37 %
30.03.2017 10:56 13,0 C 72 % 1026,9 hPa 0,0 l/m 2,8 km/h (1 Bft) S-SW 194 2 min 0,000 mm 1,4 UV-I 357 W/m 8,1 C 13,0 C 4,8 km/h (1 Bft) 95,74 %
30.03.2017 10:58 13,2 C 71 % 1026,8 hPa 0,0 l/m 3,3 km/h (1 Bft) S-SW 194 2 min 0,000 mm 1,5 UV-I 376 W/m 8,1 C 13,2 C 6,4 km/h (2 Bft) 97,87 %
30.03.2017 11:00 13,3 C 70 % 1026,8 hPa 0,0 l/m 2,9 km/h (1 Bft) S-SW 194 2 min 0,000 mm 1,5 UV-I 386 W/m 7,9 C 13,3 C 4,8 km/h (1 Bft) 97,87 %
30.03.2017 11:02 13,6 C 70 % 1026,8 hPa 0,0 l/m 1,5 km/h (1 Bft) S-SW 195 2 min 0,127 mm 1,6 UV-I 389 W/m 8,2 C 13,6 C 4,8 km/h (1 Bft) 93,62 %
30.03.2017 11:04 13,7 C 68 % 1026,9 hPa 0,0 l/m 3,5 km/h (1 Bft) SW 235 2 min 0,000 mm 1,6 UV-I 379 W/m 7,9 C 13,7 C 6,4 km/h (2 Bft) 97,87 %
30.03.2017 11:06 13,8 C 67 % 1026,8 hPa 0,0 l/m 5,1 km/h (1 Bft) W 271 2 min 0,000 mm 1,7 UV-I 403 W/m 7,8 C 13,8 C 8,0 km/h (2 Bft) 93,62 %
30.03.2017 11:08 13,8 C 66 % 1026,8 hPa 0,0 l/m 8,4 km/h (2 Bft) W-SW 256 2 min 0,000 mm 1,8 UV-I 452 W/m 7,6 C 12,6 C 12,9 km/h (3 Bft) 94,00 %
30.03.2017 11:10 13,8 C 66 % 1026,8 hPa 0,0 l/m 5,6 km/h (1 Bft) W-SW 252 2 min 0,000 mm 1,8 UV-I 428 W/m 7,6 C 13,8 C 11,3 km/h (2 Bft) 98,00 %
30.03.2017 11:12 13,9 C 67 % 1026,8 hPa 0,0 l/m 3,3 km/h (1 Bft) W-SW 252 2 min 0,000 mm 1,8 UV-I 443 W/m 7,9 C 13,9 C 6,4 km/h (2 Bft) 97,87 %
30.03.2017 11:14 13,9 C 65 % 1026,7 hPa 0,0 l/m 6,8 km/h (2 Bft) SW 221 2 min 0,000 mm 1,9 UV-I 487 W/m 7,4 C 13,7 C 14,5 km/h (3 Bft) 96,00 %
30.03.2017 11:16 14,1 C 65 % 1026,8 hPa 0,0 l/m 6,5 km/h (2 Bft) W-SW 254 2 min 0,000 mm 2,0 UV-I 555 W/m 7,6 C 14,1 C 12,9 km/h (3 Bft) 95,74 %
30.03.2017 11:18 14,3 C 64 % 1026,8 hPa 0,0 l/m 6,5 km/h (2 Bft) W-SW 243 2 min 0,000 mm 2,0 UV-I 525 W/m 7,6 C 14,3 C 11,3 km/h (2 Bft) 97,87 %
30.03.2017 11:20 14,3 C 64 % 1026,8 hPa 0,0 l/m 4,7 km/h (1 Bft) W-NW 286 2 min 0,000 mm 2,0 UV-I 500 W/m 7,6 C 14,3 C 9,7 km/h (2 Bft) 94,44 %
30.03.2017 11:22 14,4 C 65 % 1026,7 hPa 0,0 l/m 3,6 km/h (1 Bft) W-NW 287 2 min 0,000 mm 2,0 UV-I 487 W/m 7,9 C 14,4 C 8,0 km/h (2 Bft) 95,74 %
30.03.2017 11:24 14,4 C 64 % 1026,7 hPa 0,0 l/m 4,6 km/h (1 Bft) W 261 2 min 0,000 mm 2,0 UV-I 470 W/m 7,7 C 14,4 C 12,9 km/h (3 Bft) 96,00 %
30.03.2017 11:26 14,5 C 62 % 1026,8 hPa 0,0 l/m 7,2 km/h (2 Bft) W 270 2 min 0,000 mm 2,0 UV-I 460 W/m 7,3 C 14,0 C 11,3 km/h (2 Bft) 95,74 %
30.03.2017 11:28 14,4 C 62 % 1026,8 hPa 0,0 l/m 6,1 km/h (2 Bft) W-NW 288 2 min 0,000 mm 1,9 UV-I 456 W/m 7,2 C 14,4 C 11,3 km/h (2 Bft) 95,74 %
30.03.2017 11:30 14,6 C 64 % 1026,8 hPa 0,0 l/m 1,2 km/h (1 Bft) W 271 2 min 0,000 mm 1,9 UV-I 441 W/m 7,9 C 14,6 C 3,2 km/h (1 Bft) 96,00 %
30.03.2017 11:32 14,7 C 64 % 1026,8 hPa 0,0 l/m 3,0 km/h (1 Bft) W 270 2 min 0,000 mm 1,9 UV-I 445 W/m 8,0 C 14,7 C 6,4 km/h (2 Bft) 100,00 %
30.03.2017 11:34 14,8 C 63 % 1026,8 hPa 0,0 l/m 4,6 km/h (1 Bft) W-NW 289 2 min 0,000 mm 1,9 UV-I 439 W/m 7,8 C 14,8 C 11,3 km/h (2 Bft) 97,87 %
30.03.2017 11:36 14,7 C 62 % 1026,7 hPa 0,0 l/m 3,9 km/h (1 Bft) SW 236 2 min 0,000 mm 2,0 UV-I 438 W/m 7,5 C 14,7 C 8,0 km/h (2 Bft) 97,87 %
30.03.2017 11:38 14,7 C 63 % 1026,7 hPa 0,0 l/m 4,7 km/h (1 Bft) W-SW 255 2 min 0,000 mm 1,9 UV-I 434 W/m 7,7 C 14,7 C 9,7 km/h (2 Bft) 97,87 %
30.03.2017 11:40 14,6 C 62 % 1026,7 hPa 0,0 l/m 5,2 km/h (1 Bft) W 276 2 min 0,000 mm 1,9 UV-I 420 W/m 7,4 C 14,6 C 11,3 km/h (2 Bft) 97,87 %
30.03.2017 11:42 14,6 C 62 % 1026,7 hPa 0,0 l/m 4,4 km/h (1 Bft) W-SW 254 2 min 0,000 mm 2,0 UV-I 431 W/m 7,4 C 14,6 C 11,3 km/h (2 Bft) 100,00 %
30.03.2017 11:44 14,6 C 62 % 1026,7 hPa 0,0 l/m 4,9 km/h (1 Bft) W 264 2 min 0,000 mm 2,0 UV-I 454 W/m 7,4 C 14,6 C 9,7 km/h (2 Bft) 100,00 %
30.03.2017 11:46 14,7 C 63 % 1026,8 hPa 0,0 l/m 1,6 km/h (1 Bft) W 263 2 min 0,000 mm 2,0 UV-I 436 W/m 7,7 C 14,7 C 3,2 km/h (1 Bft) 97,87 %
30.03.2017 11:48 14,9 C 62 % 1026,7 hPa 0,0 l/m 1,3 km/h (1 Bft) W-NW 284 2 min 0,000 mm 2,1 UV-I 453 W/m 7,7 C 14,9 C 4,8 km/h (1 Bft) 97,87 %
30.03.2017 11:50 15,0 C 64 % 1026,7 hPa 0,0 l/m 0,2 km/h (0 Bft) W-NW 284 2 min 0,000 mm 2,2 UV-I 488 W/m 8,2 C 15,0 C 1,6 km/h (1 Bft) 93,75 %
30.03.2017 11:52 15,1 C 62 % 1026,6 hPa 0,0 l/m 1,1 km/h (1 Bft) W-NW 282 2 min 0,000 mm 2,3 UV-I 516 W/m 7,9 C 15,1 C 3,2 km/h (1 Bft) 100,00 %
30.03.2017 11:54 15,2 C 61 % 1026,7 hPa 0,0 l/m 6,0 km/h (2 Bft) W 261 2 min 0,000 mm 2,4 UV-I 547 W/m 7,7 C 15,2 C 9,7 km/h (2 Bft) 100,00 %
30.03.2017 11:56 15,2 C 60 % 1026,7 hPa 0,0 l/m 3,6 km/h (1 Bft) W 261 2 min 0,000 mm 2,4 UV-I 545 W/m 7,5 C 15,2 C 6,4 km/h (2 Bft) 100,00 %
30.03.2017 11:58 15,2 C 61 % 1026,6 hPa 0,0 l/m 2,1 km/h (1 Bft) W 266 2 min 0,000 mm 2,3 UV-I 487 W/m 7,7 C 15,2 C 6,4 km/h (2 Bft) 93,62 %
30.03.2017 12:00 15,2 C 61 % 1026,5 hPa 0,0 l/m 4,9 km/h (1 Bft) SW 215 2 min 0,254 mm 2,2 UV-I 450 W/m 7,7 C 15,2 C 9,7 km/h (2 Bft) 100,00 %
30.03.2017 12:02 15,0 C 60 % 1026,6 hPa 0,0 l/m 1,9 km/h (1 Bft) SW 219 2 min 0,000 mm 2,3 UV-I 468 W/m 7,3 C 15,0 C 4,8 km/h (1 Bft) 100,00 %
30.03.2017 12:04 14,9 C 61 % 1026,6 hPa 0,0 l/m 2,5 km/h (1 Bft) SW 219 2 min 0,000 mm 2,4 UV-I 478 W/m 7,4 C 14,9 C 4,8 km/h (1 Bft) 100,00 %
30.03.2017 12:06 15,1 C 61 % 1026,6 hPa 0,0 l/m 4,5 km/h (1 Bft) W 259 2 min 0,000 mm 2,3 UV-I 439 W/m 7,6 C 15,1 C 6,4 km/h (2 Bft) 100,00 %
30.03.2017 12:08 15,3 C 61 % 1026,6 hPa 0,0 l/m 3,8 km/h (1 Bft) W-SW 252 2 min 0,000 mm 2,4 UV-I 482 W/m 7,8 C 15,3 C 8,0 km/h (2 Bft) 93,62 %
30.03.2017 12:10 15,5 C 60 % 1026,5 hPa 0,0 l/m 4,6 km/h (1 Bft) W-SW 247 2 min 0,000 mm 2,7 UV-I 566 W/m 7,8 C 15,5 C 6,4 km/h (2 Bft) 94,00 %
30.03.2017 12:12 15,7 C 60 % 1026,5 hPa 0,0 l/m 2,9 km/h (1 Bft) W-NW 283 2 min 0,000 mm 3,0 UV-I 689 W/m 8,0 C 15,7 C 6,4 km/h (2 Bft) 97,92 %
30.03.2017 12:14 15,7 C 58 % 1026,5 hPa 0,0 l/m 3,1 km/h (1 Bft) W 279 2 min 0,000 mm 2,9 UV-I 719 W/m 7,5 C 15,7 C 8,0 km/h (2 Bft) 100,00 %
30.03.2017 12:16 15,6 C 58 % 1026,5 hPa 0,0 l/m 4,4 km/h (1 Bft) SW 229 2 min 0,000 mm 2,8 UV-I 662 W/m 7,4 C 15,6 C 8,0 km/h (2 Bft) 100,00 %
30.03.2017 12:18 15,4 C 60 % 1026,4 hPa 0,0 l/m 1,2 km/h (1 Bft) W 270 2 min 0,000 mm 2,6 UV-I 545 W/m 7,7 C 15,4 C 3,2 km/h (1 Bft) 95,74 %
30.03.2017 12:20 15,4 C 62 % 1026,4 hPa 0,0 l/m 2,3 km/h (1 Bft) NW 326 2 min 0,000 mm 2,6 UV-I 502 W/m 8,2 C 15,4 C 4,8 km/h (1 Bft) 97,87 %
30.03.2017 12:22 15,4 C 62 % 1026,4 hPa 0,0 l/m 2,4 km/h (1 Bft) NO 45 2 min 0,000 mm 2,7 UV-I 603 W/m 8,2 C 15,4 C 4,8 km/h (1 Bft) 93,62 %
30.03.2017 12:24 15,6 C 60 % 1026,4 hPa 0,0 l/m 2,0 km/h (1 Bft) W-SW 238 2 min 0,000 mm 2,8 UV-I 577 W/m 7,9 C 15,6 C 6,4 km/h (2 Bft) 97,37 %
30.03.2017 12:26 15,8 C 59 % 1026,4 hPa 0,0 l/m 2,4 km/h (1 Bft) S 176 2 min 0,000 mm 3,3 UV-I 696 W/m 7,8 C 15,8 C 4,8 km/h (1 Bft) 93,62 %
30.03.2017 12:28 16,1 C 58 % 1026,3 hPa 0,0 l/m 4,8 km/h (1 Bft) W-SW 257 2 min 0,000 mm 2,8 UV-I 638 W/m 7,8 C 16,1 C 11,3 km/h (2 Bft) 92,00 %
30.03.2017 12:30 16,0 C 58 % 1026,3 hPa 0,0 l/m 1,0 km/h (0 Bft) S 172 2 min 0,000 mm 3,1 UV-I 649 W/m 7,7 C 16,0 C 3,2 km/h (1 Bft) 95,74 %
30.03.2017 12:32 15,8 C 58 % 1026,3 hPa 0,0 l/m 2,6 km/h (1 Bft) W 264 2 min 0,000 mm 3,1 UV-I 722 W/m 7,6 C 15,8 C 6,4 km/h (2 Bft) 98,11 %
30.03.2017 12:34 16,0 C 59 % 1026,3 hPa 0,0 l/m 6,1 km/h (2 Bft) SW 235 2 min 0,000 mm 3,4 UV-I 749 W/m 8,0 C 16,0 C 9,7 km/h (2 Bft) 97,22 %
30.03.2017 12:36 16,2 C 57 % 1026,2 hPa 0,0 l/m 6,0 km/h (2 Bft) W-SW 251 2 min 0,000 mm 3,3 UV-I 692 W/m 7,7 C 16,2 C 8,0 km/h (2 Bft) 98,00 %
30.03.2017 12:38 16,2 C 57 % 1026,2 hPa 0,0 l/m 8,3 km/h (2 Bft) W 271 2 min 0,000 mm 3,0 UV-I 691 W/m 7,7 C 15,2 C 11,3 km/h (2 Bft) 95,74 %
30.03.2017 12:40 16,1 C 57 % 1026,2 hPa 0,0 l/m 6,4 km/h (2 Bft) W-SW 252 2 min 0,000 mm 2,9 UV-I 528 W/m 7,6 C 16,1 C 11,3 km/h (2 Bft) 100,00 %
30.03.2017 12:42 16,2 C 57 % 1026,2 hPa 0,0 l/m 6,2 km/h (2 Bft) W-SW 245 2 min 0,000 mm 3,2 UV-I 608 W/m 7,7 C 16,2 C 12,9 km/h (3 Bft) 98,00 %
30.03.2017 12:44 16,4 C 58 % 1026,2 hPa 0,0 l/m 5,0 km/h (1 Bft) S-SW 200 2 min 0,000 mm 3,2 UV-I 712 W/m 8,1 C 16,4 C 8,0 km/h (2 Bft) 100,00 %
30.03.2017 12:46 16,4 C 57 % 1026,2 hPa 0,0 l/m 3,6 km/h (1 Bft) W 273 2 min 0,000 mm 3,1 UV-I 704 W/m 7,9 C 16,4 C 9,7 km/h (2 Bft) 93,62 %
30.03.2017 12:48 16,5 C 56 % 1026,1 hPa 0,0 l/m 6,8 km/h (2 Bft) W-SW 240 2 min 0,000 mm 3,2 UV-I 711 W/m 7,7 C 16,3 C 11,3 km/h (2 Bft) 96,00 %
30.03.2017 12:50 16,6 C 55 % 1026,1 hPa 0,0 l/m 5,2 km/h (1 Bft) SW 231 2 min 0,000 mm 3,3 UV-I 734 W/m 7,5 C 16,6 C 8,0 km/h (2 Bft) 95,74 %
30.03.2017 12:52 16,6 C 55 % 1026,0 hPa 0,0 l/m 1,5 km/h (1 Bft) SW 231 2 min 0,000 mm 3,3 UV-I 714 W/m 7,5 C 16,6 C 4,8 km/h (1 Bft) 94,74 %
30.03.2017 12:54 16,6 C 56 % 1026,0 hPa 0,0 l/m 0,8 km/h (0 Bft) SW 231 2 min 0,000 mm 3,3 UV-I 727 W/m 7,8 C 16,6 C 4,8 km/h (1 Bft) 97,87 %
30.03.2017 12:56 16,7 C 56 % 1026,0 hPa 0,0 l/m 4,3 km/h (1 Bft) W-SW 255 2 min 0,000 mm 3,3 UV-I 741 W/m 7,9 C 16,7 C 6,4 km/h (2 Bft) 95,74 %
30.03.2017 12:58 16,8 C 55 % 1026,0 hPa 0,0 l/m 2,7 km/h (1 Bft) SW 224 2 min 0,000 mm 3,3 UV-I 735 W/m 7,7 C 16,8 C 6,4 km/h (2 Bft) 95,74 %
30.03.2017 13:00 16,8 C 55 % 1026,0 hPa 0,0 l/m 1,1 km/h (1 Bft) W 264 2 min 0,356 mm 3,2 UV-I 698 W/m 7,7 C 16,8 C 4,8 km/h (1 Bft) 97,87 %
30.03.2017 13:02 17,0 C 57 % 1026,0 hPa 0,0 l/m 1,2 km/h (1 Bft) W-NW 300 2 min 0,000 mm 3,1 UV-I 621 W/m 8,4 C 17,0 C 3,2 km/h (1 Bft) 95,74 %
30.03.2017 13:04 17,2 C 58 % 1026,0 hPa 0,0 l/m 1,8 km/h (1 Bft) N-NW 333 2 min 0,000 mm 3,2 UV-I 685 W/m 8,9 C 17,2 C 4,8 km/h (1 Bft) 95,74 %
30.03.2017 13:06 17,3 C 57 % 1026,0 hPa 0,0 l/m 3,1 km/h (1 Bft) W-NW 297 2 min 0,000 mm 3,3 UV-I 735 W/m 8,7 C 17,3 C 8,0 km/h (2 Bft) 96,00 %
30.03.2017 13:08 17,4 C 54 % 1026,0 hPa 0,0 l/m 2,1 km/h (1 Bft) W-NW 297 2 min 0,000 mm 3,3 UV-I 718 W/m 8,0 C 17,4 C 3,2 km/h (1 Bft) 96,00 %
30.03.2017 13:10 17,6 C 57 % 1026,0 hPa 0,0 l/m 2,9 km/h (1 Bft) NW 308 2 min 0,000 mm 3,3 UV-I 698 W/m 9,0 C 17,6 C 6,4 km/h (2 Bft) 95,74 %
30.03.2017 13:12 17,4 C 55 % 1026,0 hPa 0,0 l/m 1,6 km/h (1 Bft) NW 315 2 min 0,000 mm 3,2 UV-I 705 W/m 8,3 C 17,4 C 4,8 km/h (1 Bft) 95,24 %
30.03.2017 13:14 17,3 C 56 % 1026,0 hPa 0,0 l/m 2,1 km/h (1 Bft) N-NW 327 2 min 0,000 mm 3,3 UV-I 710 W/m 8,4 C 17,3 C 3,2 km/h (1 Bft) 95,74 %
30.03.2017 13:16 17,1 C 55 % 1025,9 hPa 0,0 l/m 0,2 km/h (0 Bft) N-NW 327 2 min 0,000 mm 3,2 UV-I 682 W/m 8,0 C 17,1 C 1,6 km/h (1 Bft) 95,74 %
30.03.2017 13:18 17,4 C 58 % 1025,9 hPa 0,0 l/m 1,6 km/h (1 Bft) NW 313 2 min 0,000 mm 3,2 UV-I 694 W/m 9,1 C 17,4 C 3,2 km/h (1 Bft) 93,62 %
30.03.2017 13:20 17,6 C 53 % 1025,9 hPa 0,0 l/m 1,3 km/h (1 Bft) W-NW 290 2 min 0,000 mm 3,3 UV-I 724 W/m 7,9 C 17,6 C 3,2 km/h (1 Bft) 89,36 %
30.03.2017 13:22 17,7 C 53 % 1025,9 hPa 0,0 l/m 1,0 km/h (0 Bft) W 272 2 min 0,000 mm 3,2 UV-I 689 W/m 8,0 C 17,7 C 3,2 km/h (1 Bft) 95,74 %
30.03.2017 13:24 17,7 C 54 % 1025,9 hPa 0,0 l/m 1,2 km/h (1 Bft) N 351 2 min 0,000 mm 3,1 UV-I 633 W/m 8,3 C 17,7 C 4,8 km/h (1 Bft) 93,62 %
30.03.2017 13:26 17,7 C 53 % 1025,9 hPa 0,0 l/m 3,2 km/h (1 Bft) W 265 2 min 0,000 mm 3,2 UV-I 682 W/m 8,0 C 17,7 C 4,8 km/h (1 Bft) 95,74 %
30.03.2017 13:28 17,6 C 54 % 1025,9 hPa 0,0 l/m 4,3 km/h (1 Bft) NW 306 2 min 0,000 mm 3,2 UV-I 680 W/m 8,2 C 17,6 C 6,4 km/h (2 Bft) 93,62 %
30.03.2017 13:30 17,5 C 52 % 1025,9 hPa 0,0 l/m 2,5 km/h (1 Bft) W-NW 299 2 min 0,000 mm 3,1 UV-I 645 W/m 7,5 C 17,5 C 4,8 km/h (1 Bft) 91,49 %
30.03.2017 13:32 17,3 C 53 % 1025,8 hPa 0,0 l/m 2,2 km/h (1 Bft) W 279 2 min 0,000 mm 3,1 UV-I 639 W/m 7,6 C 17,3 C 4,8 km/h (1 Bft) 95,74 %
30.03.2017 13:34 17,3 C 55 % 1025,8 hPa 0,0 l/m 1,9 km/h (1 Bft) W 276 2 min 0,000 mm 3,2 UV-I 687 W/m 8,2 C 17,3 C 4,8 km/h (1 Bft) 91,49 %
30.03.2017 13:36 17,5 C 53 % 1025,8 hPa 0,0 l/m 3,2 km/h (1 Bft) NW 305 2 min 0,000 mm 3,1 UV-I 648 W/m 7,8 C 17,5 C 6,4 km/h (2 Bft) 97,14 %
30.03.2017 13:38 17,6 C 57 % 1025,8 hPa 0,0 l/m 2,7 km/h (1 Bft) NW 305 2 min 0,000 mm 3,2 UV-I 669 W/m 9,0 C 17,6 C 8,0 km/h (2 Bft) 96,23 %
30.03.2017 13:40 17,4 C 57 % 1025,8 hPa 0,0 l/m 2,9 km/h (1 Bft) N-NO 24 2 min 0,000 mm 3,2 UV-I 676 W/m 8,8 C 17,4 C 4,8 km/h (1 Bft) 96,00 %
30.03.2017 13:42 17,4 C 53 % 1025,8 hPa 0,0 l/m 4,5 km/h (1 Bft) O 80 2 min 0,000 mm 3,2 UV-I 705 W/m 7,7 C 17,4 C 6,4 km/h (2 Bft) 97,87 %
30.03.2017 13:44 17,3 C 53 % 1025,8 hPa 0,0 l/m 3,9 km/h (1 Bft) O 79 2 min 0,000 mm 3,1 UV-I 661 W/m 7,6 C 17,3 C 6,4 km/h (2 Bft) 93,62 %
30.03.2017 13:46 17,2 C 53 % 1025,8 hPa 0,0 l/m 2,5 km/h (1 Bft) O 79 2 min 0,000 mm 3,1 UV-I 676 W/m 7,5 C 17,2 C 4,8 km/h (1 Bft) 96,00 %
30.03.2017 13:48 17,3 C 54 % 1025,8 hPa 0,0 l/m 1,5 km/h (1 Bft) O 79 2 min 0,000 mm 3,3 UV-I 721 W/m 7,9 C 17,3 C 3,2 km/h (1 Bft) 91,49 %
30.03.2017 13:50 17,6 C 54 % 1025,7 hPa 0,0 l/m 1,0 km/h (0 Bft) N-NO 17 2 min 0,000 mm 3,3 UV-I 741 W/m 8,2 C 17,6 C 3,2 km/h (1 Bft) 95,74 %
30.03.2017 13:52 17,8 C 54 % 1025,6 hPa 0,0 l/m 2,3 km/h (1 Bft) NW 318 2 min 0,000 mm 3,2 UV-I 720 W/m 8,4 C 17,8 C 4,8 km/h (1 Bft) 91,67 %
30.03.2017 13:54 18,0 C 52 % 1025,6 hPa 0,0 l/m 2,5 km/h (1 Bft) NW 326 2 min 0,000 mm 3,1 UV-I 667 W/m 8,0 C 18,0 C 8,0 km/h (2 Bft) 93,62 %
30.03.2017 13:56 18,1 C 50 % 1025,6 hPa 0,0 l/m 1,9 km/h (1 Bft) NW 315 2 min 0,000 mm 2,9 UV-I 635 W/m 7,5 C 18,1 C 4,8 km/h (1 Bft) 95,74 %
30.03.2017 13:58 17,9 C 50 % 1025,5 hPa 0,0 l/m 3,3 km/h (1 Bft) N 9 2 min 0,000 mm 2,9 UV-I 628 W/m 7,3 C 17,9 C 9,7 km/h (2 Bft) 93,62 %
30.03.2017 14:00 18,1 C 54 % 1025,5 hPa 0,0 l/m 2,9 km/h (1 Bft) N-NW 329 2 min 0,000 mm 3,1 UV-I 723 W/m 8,6 C 18,1 C 6,4 km/h (2 Bft) 94,29 %
30.03.2017 14:02 18,2 C 52 % 1025,5 hPa 0,0 l/m 4,1 km/h (1 Bft) N-NW 335 2 min 0,381 mm 3,0 UV-I 742 W/m 8,2 C 18,2 C 8,0 km/h (2 Bft) 94,34 %
30.03.2017 14:04 18,3 C 57 % 1025,5 hPa 0,0 l/m 2,3 km/h (1 Bft) N 355 2 min 0,000 mm 3,0 UV-I 799 W/m 9,6 C 18,3 C 4,8 km/h (1 Bft) 97,87 %
30.03.2017 14:06 18,2 C 56 % 1025,5 hPa 0,0 l/m 2,7 km/h (1 Bft) NO 39 2 min 0,000 mm 2,9 UV-I 814 W/m 9,3 C 18,2 C 6,4 km/h (2 Bft) 96,00 %
30.03.2017 14:08 18,2 C 49 % 1025,4 hPa 0,0 l/m 2,6 km/h (1 Bft) N-NO 28 2 min 0,000 mm 3,1 UV-I 830 W/m 7,3 C 18,2 C 6,4 km/h (2 Bft) 97,87 %
30.03.2017 14:10 18,2 C 50 % 1025,5 hPa 0,0 l/m 1,5 km/h (1 Bft) S 176 2 min 0,000 mm 3,2 UV-I 860 W/m 7,6 C 18,2 C 3,2 km/h (1 Bft) 91,49 %
30.03.2017 14:12 18,2 C 50 % 1025,4 hPa 0,0 l/m 4,5 km/h (1 Bft) S-SO 160 2 min 0,000 mm 2,8 UV-I 819 W/m 7,6 C 18,2 C 8,0 km/h (2 Bft) 96,00 %
30.03.2017 14:14 18,2 C 50 % 1025,5 hPa 0,0 l/m 7,2 km/h (2 Bft) SW 236 2 min 0,000 mm 2,5 UV-I 424 W/m 7,6 C 17,8 C 9,7 km/h (2 Bft) 93,62 %
30.03.2017 14:16 18,2 C 49 % 1025,4 hPa 0,0 l/m 7,3 km/h (2 Bft) W-SW 241 0 min 0,000 mm 2,5 UV-I 327 W/m 7,3 C 17,8 C 11,3 km/h (2 Bft) 93,62 %
30.03.2017 14:18 18,3 C 50 % 1025,4 hPa 0,0 l/m 6,6 km/h (2 Bft) SW 236 2 min 0,000 mm 2,9 UV-I 471 W/m 7,7 C 18,2 C 12,9 km/h (3 Bft) 95,74 %
30.03.2017 14:20 18,5 C 51 % 1025,3 hPa 0,0 l/m 4,1 km/h (1 Bft) SW 224 2 min 0,000 mm 3,0 UV-I 808 W/m 8,2 C 18,5 C 6,4 km/h (2 Bft) 97,37 %
30.03.2017 14:22 18,7 C 49 % 1025,4 hPa 0,0 l/m 1,2 km/h (1 Bft) SW 217 2 min 0,000 mm 3,0 UV-I 816 W/m 7,8 C 18,7 C 4,8 km/h (1 Bft) 96,00 %
30.03.2017 14:24 18,8 C 47 % 1025,3 hPa 0,0 l/m 3,9 km/h (1 Bft) NW 319 2 min 0,000 mm 2,6 UV-I 765 W/m 7,2 C 18,8 C 9,7 km/h (2 Bft) 97,87 %
30.03.2017 14:26 18,7 C 49 % 1025,3 hPa 0,0 l/m 2,0 km/h (1 Bft) N-NW 344 2 min 0,000 mm 2,4 UV-I 430 W/m 7,8 C 18,7 C 4,8 km/h (1 Bft) 97,87 %
30.03.2017 14:28 18,7 C 49 % 1025,3 hPa 0,0 l/m 4,6 km/h (1 Bft) SW 221 2 min 0,000 mm 2,7 UV-I 483 W/m 7,8 C 18,7 C 8,0 km/h (2 Bft) 92,00 %
30.03.2017 14:30 18,7 C 49 % 1025,3 hPa 0,0 l/m 2,0 km/h (1 Bft) SW 216 2 min 0,000 mm 3,1 UV-I 774 W/m 7,8 C 18,7 C 6,4 km/h (2 Bft) 93,62 %
30.03.2017 14:32 18,9 C 50 % 1025,2 hPa 0,0 l/m 5,9 km/h (2 Bft) SW 224 2 min 0,000 mm 3,1 UV-I 904 W/m 8,2 C 18,9 C 9,7 km/h (2 Bft) 93,75 %
30.03.2017 14:34 19,1 C 48 % 1025,3 hPa 0,0 l/m 8,0 km/h (2 Bft) W-SW 248 2 min 0,000 mm 3,1 UV-I 890 W/m 7,8 C 18,4 C 12,9 km/h (3 Bft) 97,87 %
30.03.2017 14:36 18,8 C 45 % 1025,2 hPa 0,0 l/m 4,8 km/h (1 Bft) W-SW 254 2 min 0,000 mm 3,1 UV-I 893 W/m 6,6 C 18,8 C 11,3 km/h (2 Bft) 97,87 %
30.03.2017 14:38 18,4 C 47 % 1025,2 hPa 0,0 l/m 0,5 km/h (0 Bft) W-SW 254 2 min 0,000 mm 3,1 UV-I 896 W/m 6,9 C 18,4 C 1,6 km/h (1 Bft) 97,87 %
30.03.2017 14:40 18,2 C 48 % 1025,2 hPa 0,0 l/m 2,3 km/h (1 Bft) W-SW 241 2 min 0,000 mm 3,1 UV-I 915 W/m 7,0 C 18,2 C 6,4 km/h (2 Bft) 97,14 %
30.03.2017 14:42 18,5 C 47 % 1025,2 hPa 0,0 l/m 5,7 km/h (1 Bft) W-SW 254 2 min 0,000 mm 3,0 UV-I 910 W/m 7,0 C 18,5 C 14,5 km/h (3 Bft) 98,00 %
30.03.2017 14:44 18,6 C 48 % 1025,2 hPa 0,0 l/m 2,9 km/h (1 Bft) S-SO 166 2 min 0,000 mm 2,9 UV-I 890 W/m 7,4 C 18,6 C 8,0 km/h (2 Bft) 98,00 %
30.03.2017 14:46 18,7 C 48 % 1025,2 hPa 0,0 l/m 7,7 km/h (2 Bft) W 268 2 min 0,000 mm 2,8 UV-I 843 W/m 7,5 C 18,1 C 12,9 km/h (3 Bft) 93,62 %
30.03.2017 14:48 18,8 C 46 % 1025,1 hPa 0,0 l/m 6,3 km/h (2 Bft) SW 227 2 min 0,000 mm 2,6 UV-I 810 W/m 6,9 C 18,8 C 12,9 km/h (3 Bft) 93,62 %
30.03.2017 14:50 18,6 C 47 % 1025,1 hPa 0,0 l/m 3,4 km/h (1 Bft) SW 230 2 min 0,000 mm 2,4 UV-I 796 W/m 7,1 C 18,6 C 9,7 km/h (2 Bft) 93,62 %
30.03.2017 14:52 18,7 C 47 % 1025,1 hPa 0,0 l/m 5,9 km/h (2 Bft) SW 221 2 min 0,000 mm 2,1 UV-I 795 W/m 7,2 C 18,7 C 9,7 km/h (2 Bft) 93,62 %
30.03.2017 14:54 18,7 C 46 % 1025,1 hPa 0,0 l/m 3,0 km/h (1 Bft) S-SW 194 2 min 0,000 mm 1,6 UV-I 650 W/m 6,8 C 18,7 C 8,0 km/h (2 Bft) 95,74 %
30.03.2017 14:56 18,7 C 46 % 1025,1 hPa 0,0 l/m 6,1 km/h (2 Bft) W-SW 254 0 min 0,000 mm 1,5 UV-I 311 W/m 6,8 C 18,7 C 8,0 km/h (2 Bft) 95,12 %
30.03.2017 14:58 18,6 C 46 % 1025,0 hPa 0,0 l/m 4,4 km/h (1 Bft) W 264 0 min 0,000 mm 1,4 UV-I 308 W/m 6,8 C 18,6 C 6,4 km/h (2 Bft) 95,74 %
30.03.2017 15:00 18,3 C 48 % 1025,0 hPa 0,0 l/m 1,2 km/h (1 Bft) W-SW 246 0 min 0,406 mm 1,4 UV-I 312 W/m 7,1 C 18,3 C 4,8 km/h (1 Bft) 95,74 %
30.03.2017 15:02 18,4 C 47 % 1025,0 hPa 0,0 l/m 2,8 km/h (1 Bft) SW 228 0 min 0,000 mm 1,5 UV-I 329 W/m 6,9 C 18,4 C 4,8 km/h (1 Bft) 97,87 %
30.03.2017 15:04 18,3 C 46 % 1025,0 hPa 0,0 l/m 1,4 km/h (1 Bft) SW 229 0 min 0,000 mm 1,5 UV-I 340 W/m 6,5 C 18,3 C 3,2 km/h (1 Bft) 95,74 %
30.03.2017 15:06 18,3 C 46 % 1024,9 hPa 0,0 l/m 0,9 km/h (0 Bft) N 360 2 min 0,000 mm 1,6 UV-I 366 W/m 6,5 C 18,3 C 4,8 km/h (1 Bft) 91,67 %
30.03.2017 15:08 18,3 C 47 % 1024,9 hPa 0,0 l/m 3,4 km/h (1 Bft) W-SW 257 2 min 0,000 mm 1,7 UV-I 413 W/m 6,8 C 18,3 C 9,7 km/h (2 Bft) 95,74 %
30.03.2017 15:10 18,5 C 48 % 1024,9 hPa 0,0 l/m 4,3 km/h (1 Bft) W-NW 285 2 min 0,000 mm 1,7 UV-I 412 W/m 7,3 C 18,5 C 6,4 km/h (2 Bft) 93,62 %
30.03.2017 15:12 18,6 C 51 % 1024,9 hPa 0,0 l/m 2,7 km/h (1 Bft) W-NW 301 2 min 0,000 mm 1,7 UV-I 384 W/m 8,3 C 18,6 C 6,4 km/h (2 Bft) 95,74 %
30.03.2017 15:14 18,5 C 47 % 1024,9 hPa 0,0 l/m 2,3 km/h (1 Bft) NW 320 2 min 0,000 mm 1,8 UV-I 461 W/m 7,0 C 18,5 C 4,8 km/h (1 Bft) 96,15 %
30.03.2017 15:16 18,3 C 46 % 1024,8 hPa 0,0 l/m 1,8 km/h (1 Bft) NW 304 2 min 0,000 mm 1,9 UV-I 437 W/m 6,5 C 18,3 C 4,8 km/h (1 Bft) 94,00 %
30.03.2017 15:18 18,3 C 46 % 1024,8 hPa 0,0 l/m 2,7 km/h (1 Bft) S 182 2 min 0,000 mm 2,0 UV-I 487 W/m 6,5 C 18,3 C 4,8 km/h (1 Bft) 100,00 %
30.03.2017 15:20 18,3 C 46 % 1024,7 hPa 0,0 l/m 1,6 km/h (1 Bft) S 182 2 min 0,000 mm 2,2 UV-I 687 W/m 6,5 C 18,3 C 4,8 km/h (1 Bft) 100,00 %
30.03.2017 15:22 18,4 C 48 % 1024,7 hPa 0,0 l/m 0,3 km/h (0 Bft) S 176 2 min 0,000 mm 2,2 UV-I 777 W/m 7,2 C 18,4 C 3,2 km/h (1 Bft) 100,00 %
30.03.2017 15:24 18,7 C 53 % 1024,7 hPa 0,0 l/m 2,3 km/h (1 Bft) NO 40 2 min 0,000 mm 2,2 UV-I 737 W/m 8,9 C 18,7 C 4,8 km/h (1 Bft) 100,00 %
30.03.2017 15:26 18,7 C 46 % 1024,7 hPa 0,0 l/m 2,0 km/h (1 Bft) NO 38 2 min 0,000 mm 2,2 UV-I 708 W/m 6,8 C 18,7 C 3,2 km/h (1 Bft) 100,00 %
30.03.2017 15:28 18,8 C 51 % 1024,6 hPa 0,0 l/m 6,4 km/h (2 Bft) O-NO 57 2 min 0,000 mm 2,1 UV-I 682 W/m 8,4 C 18,8 C 12,9 km/h (3 Bft) 100,00 %
30.03.2017 15:30 18,9 C 52 % 1024,6 hPa 0,0 l/m 4,6 km/h (1 Bft) O-NO 64 2 min 0,000 mm 2,1 UV-I 674 W/m 8,8 C 18,9 C 9,7 km/h (2 Bft) 97,87 %
30.03.2017 15:32 19,0 C 54 % 1024,6 hPa 0,0 l/m 9,5 km/h (2 Bft) NO 40 2 min 0,000 mm 2,1 UV-I 672 W/m 9,5 C 17,7 C 11,3 km/h (2 Bft) 100,00 %
30.03.2017 15:34 19,0 C 51 % 1024,6 hPa 0,0 l/m 7,0 km/h (2 Bft) N 11 2 min 0,000 mm 2,1 UV-I 692 W/m 8,6 C 18,7 C 14,5 km/h (3 Bft) 100,00 %
30.03.2017 15:36 19,0 C 53 % 1024,6 hPa 0,0 l/m 7,6 km/h (2 Bft) NO 42 2 min 0,000 mm 2,0 UV-I 679 W/m 9,2 C 18,5 C 14,5 km/h (3 Bft) 100,00 %
30.03.2017 15:38 19,1 C 50 % 1024,5 hPa 0,0 l/m 6,8 km/h (2 Bft) NO 48 2 min 0,000 mm 2,0 UV-I 671 W/m 8,4 C 18,9 C 12,9 km/h (3 Bft) 94,00 %
30.03.2017 15:40 19,0 C 47 % 1024,5 hPa 0,0 l/m 6,5 km/h (2 Bft) O-NO 59 2 min 0,000 mm 2,0 UV-I 655 W/m 7,4 C 19,0 C 9,7 km/h (2 Bft) 97,14 %
30.03.2017 15:42 19,2 C 52 % 1024,4 hPa 0,0 l/m 7,5 km/h (2 Bft) N-NO 28 2 min 0,000 mm 2,0 UV-I 640 W/m 9,1 C 18,7 C 11,3 km/h (2 Bft) 97,87 %
30.03.2017 15:44 19,2 C 52 % 1024,4 hPa 0,0 l/m 10,0 km/h (2 Bft) N-NO 19 2 min 0,000 mm 1,9 UV-I 613 W/m 9,1 C 17,8 C 17,7 km/h (3 Bft) 100,00 %
30.03.2017 15:46 19,1 C 50 % 1024,4 hPa 0,0 l/m 11,1 km/h (2 Bft) N-NO 30 2 min 0,000 mm 1,9 UV-I 591 W/m 8,4 C 17,3 C 14,5 km/h (3 Bft) 98,08 %
30.03.2017 15:48 18,9 C 51 % 1024,4 hPa 0,0 l/m 10,8 km/h (2 Bft) N-NO 22 2 min 0,000 mm 1,8 UV-I 573 W/m 8,5 C 17,1 C 17,7 km/h (3 Bft) 97,87 %
30.03.2017 15:50 18,8 C 51 % 1024,4 hPa 0,0 l/m 9,4 km/h (2 Bft) NO 37 2 min 0,000 mm 1,8 UV-I 558 W/m 8,4 C 17,5 C 16,1 km/h (3 Bft) 100,00 %
30.03.2017 15:52 18,7 C 53 % 1024,4 hPa 0,0 l/m 8,2 km/h (2 Bft) N 355 2 min 0,000 mm 1,8 UV-I 544 W/m 8,9 C 17,9 C 17,7 km/h (3 Bft) 100,00 %
30.03.2017 15:54 18,6 C 51 % 1024,4 hPa 0,0 l/m 14,2 km/h (3 Bft) N-NO 19 2 min 0,000 mm 1,7 UV-I 536 W/m 8,3 C 15,8 C 17,7 km/h (3 Bft) 100,00 %
30.03.2017 15:56 18,6 C 52 % 1024,4 hPa 0,0 l/m 9,3 km/h (2 Bft) N-NO 21 2 min 0,000 mm 1,7 UV-I 525 W/m 8,5 C 17,4 C 14,5 km/h (3 Bft) 95,74 %
30.03.2017 15:58 18,6 C 50 % 1024,3 hPa 0,0 l/m 12,9 km/h (3 Bft) NO 40 2 min 0,000 mm 1,7 UV-I 517 W/m 8,0 C 16,1 C 16,1 km/h (3 Bft) 94,74 %
30.03.2017 16:00 18,6 C 53 % 1024,3 hPa 0,0 l/m 7,4 km/h (2 Bft) N 11 2 min 0,000 mm 1,6 UV-I 509 W/m 8,8 C 18,1 C 12,9 km/h (3 Bft) 100,00 %
30.03.2017 16:02 18,5 C 53 % 1024,3 hPa 0,0 l/m 6,0 km/h (2 Bft) N-NO 21 2 min 0,356 mm 1,6 UV-I 498 W/m 8,7 C 18,5 C 12,9 km/h (3 Bft) 100,00 %
30.03.2017 16:04 18,6 C 52 % 1024,3 hPa 0,0 l/m 11,7 km/h (2 Bft) N-NO 27 2 min 0,000 mm 1,6 UV-I 493 W/m 8,5 C 16,5 C 17,7 km/h (3 Bft) 98,00 %
30.03.2017 16:06 18,6 C 53 % 1024,4 hPa 0,0 l/m 4,1 km/h (1 Bft) N-NO 17 2 min 0,000 mm 1,5 UV-I 486 W/m 8,8 C 18,6 C 9,7 km/h (2 Bft) 100,00 %
30.03.2017 16:08 18,6 C 51 % 1024,3 hPa 0,0 l/m 6,6 km/h (2 Bft) N 5 2 min 0,000 mm 1,5 UV-I 482 W/m 8,3 C 18,5 C 14,5 km/h (3 Bft) 97,37 %
30.03.2017 16:10 18,6 C 53 % 1024,3 hPa 0,0 l/m 6,6 km/h (2 Bft) N-NW 346 2 min 0,000 mm 1,5 UV-I 482 W/m 8,8 C 18,5 C 12,9 km/h (3 Bft) 100,00 %
30.03.2017 16:12 18,6 C 53 % 1024,3 hPa 0,0 l/m 1,4 km/h (1 Bft) N 9 2 min 0,000 mm 1,5 UV-I 478 W/m 8,8 C 18,6 C 4,8 km/h (1 Bft) 100,00 %
30.03.2017 16:14 18,7 C 54 % 1024,3 hPa 0,0 l/m 2,7 km/h (1 Bft) N-NW 335 2 min 0,000 mm 1,4 UV-I 474 W/m 9,2 C 18,7 C 6,4 km/h (2 Bft) 100,00 %
30.03.2017 16:16 18,6 C 48 % 1024,3 hPa 0,0 l/m 1,2 km/h (1 Bft) N-NW 329 2 min 0,000 mm 1,4 UV-I 470 W/m 7,4 C 18,6 C 3,2 km/h (1 Bft) 96,00 %
30.03.2017 16:18 18,6 C 48 % 1024,3 hPa 0,0 l/m 1,4 km/h (1 Bft) N 11 2 min 0,000 mm 1,4 UV-I 467 W/m 7,4 C 18,6 C 4,8 km/h (1 Bft) 97,87 %
30.03.2017 16:20 18,5 C 49 % 1024,3 hPa 0,0 l/m 2,0 km/h (1 Bft) N-NO 17 2 min 0,000 mm 1,4 UV-I 462 W/m 7,6 C 18,5 C 6,4 km/h (2 Bft) 97,22 %
30.03.2017 16:22 18,6 C 49 % 1024,3 hPa 0,0 l/m 1,5 km/h (1 Bft) N 355 2 min 0,000 mm 1,3 UV-I 456 W/m 7,7 C 18,6 C 4,8 km/h (1 Bft) 93,88 %
30.03.2017 16:24 18,7 C 52 % 1024,4 hPa 0,0 l/m 1,8 km/h (1 Bft) N-NO 17 2 min 0,000 mm 1,3 UV-I 451 W/m 8,6 C 18,7 C 3,2 km/h (1 Bft) 100,00 %
30.03.2017 16:26 18,6 C 46 % 1024,3 hPa 0,0 l/m 1,9 km/h (1 Bft) N-NW 344 2 min 0,000 mm 1,3 UV-I 444 W/m 6,8 C 18,6 C 4,8 km/h (1 Bft) 97,87 %
30.03.2017 16:28 18,6 C 46 % 1024,3 hPa 0,0 l/m 1,1 km/h (1 Bft) SO 131 2 min 0,000 mm 1,3 UV-I 437 W/m 6,8 C 18,6 C 4,8 km/h (1 Bft) 95,74 %
30.03.2017 16:30 18,5 C 46 % 1024,3 hPa 0,0 l/m 6,1 km/h (2 Bft) SO 126 2 min 0,000 mm 1,3 UV-I 433 W/m 6,7 C 18,5 C 11,3 km/h (2 Bft) 100,00 %
30.03.2017 16:32 18,6 C 47 % 1024,3 hPa 0,0 l/m 3,7 km/h (1 Bft) O-SO 112 2 min 0,000 mm 1,2 UV-I 428 W/m 7,1 C 18,6 C 6,4 km/h (2 Bft) 97,87 %
30.03.2017 16:34 18,6 C 47 % 1024,3 hPa 0,0 l/m 0,8 km/h (0 Bft) O-SO 112 2 min 0,000 mm 1,2 UV-I 423 W/m 7,1 C 18,6 C 3,2 km/h (1 Bft) 100,00 %
30.03.2017 16:36 18,7 C 48 % 1024,3 hPa 0,0 l/m 1,7 km/h (1 Bft) N 355 2 min 0,000 mm 1,2 UV-I 416 W/m 7,5 C 18,7 C 4,8 km/h (1 Bft) 100,00 %
30.03.2017 16:38 18,7 C 52 % 1024,2 hPa 0,0 l/m 0,9 km/h (0 Bft) N-NO 26 2 min 0,000 mm 1,1 UV-I 410 W/m 8,6 C 18,7 C 3,2 km/h (1 Bft) 97,87 %
30.03.2017 16:40 18,7 C 51 % 1024,3 hPa 0,0 l/m 3,8 km/h (1 Bft) N-NO 18 2 min 0,000 mm 1,1 UV-I 405 W/m 8,4 C 18,7 C 6,4 km/h (2 Bft) 97,87 %
30.03.2017 16:42 18,8 C 53 % 1024,3 hPa 0,0 l/m 1,5 km/h (1 Bft) N 355 2 min 0,000 mm 1,1 UV-I 400 W/m 9,0 C 18,8 C 4,8 km/h (1 Bft) 97,87 %
30.03.2017 16:44 18,8 C 51 % 1024,2 hPa 0,0 l/m 1,1 km/h (1 Bft) N 355 2 min 0,000 mm 1,1 UV-I 396 W/m 8,4 C 18,8 C 3,2 km/h (1 Bft) 95,74 %
30.03.2017 16:46 18,8 C 48 % 1024,2 hPa 0,0 l/m 3,4 km/h (1 Bft) NO 51 2 min 0,000 mm 1,0 UV-I 391 W/m 7,6 C 18,8 C 8,0 km/h (2 Bft) 96,08 %
30.03.2017 16:48 18,8 C 49 % 1024,2 hPa 0,0 l/m 5,6 km/h (1 Bft) O-NO 59 2 min 0,000 mm 1,0 UV-I 384 W/m 7,9 C 18,8 C 8,0 km/h (2 Bft) 94,74 %
30.03.2017 16:50 18,7 C 45 % 1024,2 hPa 0,0 l/m 3,4 km/h (1 Bft) O-NO 58 2 min 0,000 mm 1,0 UV-I 379 W/m 6,5 C 18,7 C 6,4 km/h (2 Bft) 95,74 %
30.03.2017 16:52 18,7 C 47 % 1024,2 hPa 0,0 l/m 4,2 km/h (1 Bft) O-SO 109 2 min 0,000 mm 1,0 UV-I 374 W/m 7,2 C 18,7 C 9,7 km/h (2 Bft) 93,62 %
30.03.2017 16:54 18,6 C 46 % 1024,2 hPa 0,0 l/m 5,1 km/h (1 Bft) O-SO 106 2 min 0,000 mm 0,9 UV-I 370 W/m 6,8 C 18,6 C 9,7 km/h (2 Bft) 95,74 %
30.03.2017 16:56 18,5 C 45 % 1024,2 hPa 0,0 l/m 5,0 km/h (1 Bft) O-SO 116 2 min 0,000 mm 0,9 UV-I 364 W/m 6,3 C 18,5 C 9,7 km/h (2 Bft) 91,49 %
30.03.2017 16:58 18,5 C 46 % 1024,2 hPa 0,0 l/m 3,3 km/h (1 Bft) O-SO 123 2 min 0,000 mm 0,9 UV-I 358 W/m 6,7 C 18,5 C 6,4 km/h (2 Bft) 93,62 %
30.03.2017 17:00 18,5 C 48 % 1024,1 hPa 0,0 l/m 3,7 km/h (1 Bft) O-NO 74 2 min 0,279 mm 0,9 UV-I 351 W/m 7,3 C 18,5 C 6,4 km/h (2 Bft) 95,74 %
30.03.2017 17:02 18,6 C 46 % 1024,1 hPa 0,0 l/m 6,1 km/h (2 Bft) O-NO 76 2 min 0,000 mm 0,8 UV-I 345 W/m 6,8 C 18,6 C 8,0 km/h (2 Bft) 95,74 %
30.03.2017 17:04 18,7 C 46 % 1024,0 hPa 0,0 l/m 5,2 km/h (1 Bft) NO 49 2 min 0,000 mm 0,8 UV-I 339 W/m 6,8 C 18,7 C 8,0 km/h (2 Bft) 91,67 %
30.03.2017 17:06 18,7 C 47 % 1024,1 hPa 0,0 l/m 1,0 km/h (0 Bft) NO 49 2 min 0,000 mm 0,8 UV-I 333 W/m 7,2 C 18,7 C 3,2 km/h (1 Bft) 91,49 %
30.03.2017 17:08 18,6 C 47 % 1024,0 hPa 0,0 l/m 3,9 km/h (1 Bft) O-SO 107 2 min 0,000 mm 0,8 UV-I 328 W/m 7,1 C 18,6 C 9,7 km/h (2 Bft) 89,36 %
30.03.2017 17:10 18,6 C 45 % 1024,0 hPa 0,0 l/m 4,2 km/h (1 Bft) SO 145 2 min 0,000 mm 0,7 UV-I 322 W/m 6,4 C 18,6 C 12,9 km/h (3 Bft) 95,74 %
30.03.2017 17:12 18,4 C 47 % 1024,0 hPa 0,0 l/m 1,4 km/h (1 Bft) O-SO 113 2 min 0,000 mm 0,7 UV-I 316 W/m 6,9 C 18,4 C 4,8 km/h (1 Bft) 95,74 %
30.03.2017 17:14 18,5 C 51 % 1024,0 hPa 0,0 l/m 2,2 km/h (1 Bft) NO 53 2 min 0,000 mm 0,7 UV-I 309 W/m 8,2 C 18,5 C 4,8 km/h (1 Bft) 93,62 %
30.03.2017 17:16 18,6 C 52 % 1024,0 hPa 0,0 l/m 1,2 km/h (1 Bft) NW 311 2 min 0,000 mm 0,7 UV-I 304 W/m 8,5 C 18,6 C 3,2 km/h (1 Bft) 92,00 %
30.03.2017 17:18 18,5 C 52 % 1024,0 hPa 0,0 l/m 5,1 km/h (1 Bft) NO 49 2 min 0,000 mm 0,7 UV-I 298 W/m 8,5 C 18,5 C 9,7 km/h (2 Bft) 93,62 %
30.03.2017 17:20 18,4 C 51 % 1024,0 hPa 0,0 l/m 7,2 km/h (2 Bft) N-NO 31 2 min 0,000 mm 0,6 UV-I 291 W/m 8,1 C 18,0 C 9,7 km/h (2 Bft) 100,00 %
30.03.2017 17:22 18,4 C 52 % 1024,0 hPa 0,0 l/m 6,8 km/h (2 Bft) N-NO 21 2 min 0,000 mm 0,6 UV-I 286 W/m 8,4 C 18,2 C 9,7 km/h (2 Bft) 97,87 %
30.03.2017 17:24 18,3 C 51 % 1024,0 hPa 0,0 l/m 2,8 km/h (1 Bft) NO 44 2 min 0,000 mm 0,6 UV-I 281 W/m 8,0 C 18,3 C 6,4 km/h (2 Bft) 100,00 %
30.03.2017 17:26 18,3 C 47 % 1024,0 hPa 0,0 l/m 1,9 km/h (1 Bft) NO 44 2 min 0,000 mm 0,6 UV-I 276 W/m 6,8 C 18,3 C 4,8 km/h (1 Bft) 97,87 %
30.03.2017 17:28 18,3 C 52 % 1023,9 hPa 0,0 l/m 3,3 km/h (1 Bft) NO 35 2 min 0,000 mm 0,6 UV-I 271 W/m 8,3 C 18,3 C 9,7 km/h (2 Bft) 89,47 %
30.03.2017 17:30 18,3 C 51 % 1023,9 hPa 0,0 l/m 8,3 km/h (2 Bft) NO 38 2 min 0,000 mm 0,5 UV-I 266 W/m 8,0 C 17,4 C 12,9 km/h (3 Bft) 97,87 %
30.03.2017 17:32 18,2 C 51 % 1023,9 hPa 0,0 l/m 5,5 km/h (1 Bft) NO 38 2 min 0,000 mm 0,5 UV-I 261 W/m 7,9 C 18,2 C 8,0 km/h (2 Bft) 98,00 %
30.03.2017 17:34 18,2 C 53 % 1023,9 hPa 0,0 l/m 4,9 km/h (1 Bft) NO 56 2 min 0,000 mm 0,5 UV-I 255 W/m 8,5 C 18,2 C 6,4 km/h (2 Bft) 97,87 %
30.03.2017 17:36 18,3 C 52 % 1023,9 hPa 0,0 l/m 4,0 km/h (1 Bft) N-NO 14 2 min 0,000 mm 0,5 UV-I 248 W/m 8,3 C 18,3 C 8,0 km/h (2 Bft) 96,00 %
30.03.2017 17:38 18,3 C 51 % 1023,9 hPa 0,0 l/m 5,6 km/h (1 Bft) N-NO 27 2 min 0,000 mm 0,5 UV-I 242 W/m 8,0 C 18,3 C 11,3 km/h (2 Bft) 93,62 %
30.03.2017 17:40 18,2 C 50 % 1023,8 hPa 0,0 l/m 6,4 km/h (2 Bft) N 10 2 min 0,000 mm 0,3 UV-I 237 W/m 7,6 C 18,2 C 12,9 km/h (3 Bft) 92,00 %
30.03.2017 17:42 18,1 C 51 % 1023,8 hPa 0,0 l/m 6,8 km/h (2 Bft) N-NO 28 2 min 0,000 mm 0,0 UV-I 230 W/m 7,8 C 17,9 C 9,7 km/h (2 Bft) 94,87 %
30.03.2017 17:44 18,0 C 54 % 1023,8 hPa 0,0 l/m 5,2 km/h (1 Bft) NO 55 2 min 0,000 mm 0,0 UV-I 224 W/m 8,6 C 18,0 C 9,7 km/h (2 Bft) 98,00 %
30.03.2017 17:46 18,1 C 50 % 1023,8 hPa 0,0 l/m 8,0 km/h (2 Bft) N-NO 21 2 min 0,000 mm 0,0 UV-I 219 W/m 7,5 C 17,4 C 12,9 km/h (3 Bft) 100,00 %
30.03.2017 17:48 18,0 C 50 % 1023,8 hPa 0,0 l/m 7,4 km/h (2 Bft) NO 42 2 min 0,000 mm 0,0 UV-I 213 W/m 7,4 C 17,5 C 9,7 km/h (2 Bft) 96,00 %
30.03.2017 17:50 17,9 C 49 % 1023,7 hPa 0,0 l/m 4,3 km/h (1 Bft) NO 44 2 min 0,000 mm 0,0 UV-I 206 W/m 7,0 C 17,9 C 8,0 km/h (2 Bft) 97,87 %
30.03.2017 17:52 17,9 C 53 % 1023,8 hPa 0,0 l/m 4,3 km/h (1 Bft) NO 45 2 min 0,000 mm 0,0 UV-I 201 W/m 8,2 C 17,9 C 8,0 km/h (2 Bft) 97,87 %
30.03.2017 17:54 18,0 C 48 % 1023,7 hPa 0,0 l/m 1,6 km/h (1 Bft) NO 45 2 min 0,000 mm 0,0 UV-I 195 W/m 6,8 C 18,0 C 6,4 km/h (2 Bft) 97,87 %
30.03.2017 17:56 18,1 C 50 % 1023,7 hPa 0,0 l/m 4,1 km/h (1 Bft) NO 40 2 min 0,000 mm 0,0 UV-I 190 W/m 7,5 C 18,1 C 8,0 km/h (2 Bft) 97,87 %
30.03.2017 17:58 18,0 C 51 % 1023,7 hPa 0,0 l/m 5,1 km/h (1 Bft) N-NO 24 2 min 0,000 mm 0,0 UV-I 184 W/m 7,7 C 18,0 C 8,0 km/h (2 Bft) 95,74 %
30.03.2017 18:00 17,9 C 53 % 1023,7 hPa 0,0 l/m 5,8 km/h (2 Bft) N-NO 24 2 min 0,000 mm 0,0 UV-I 180 W/m 8,2 C 17,9 C 11,3 km/h (2 Bft) 93,62 %
30.03.2017 18:02 17,8 C 51 % 1023,7 hPa 0,0 l/m 9,5 km/h (2 Bft) N-NO 26 2 min 0,178 mm 0,0 UV-I 175 W/m 7,5 C 16,4 C 14,5 km/h (3 Bft) 94,74 %
30.03.2017 18:04 17,6 C 54 % 1023,7 hPa 0,0 l/m 8,0 km/h (2 Bft) N-NO 28 2 min 0,000 mm 0,0 UV-I 170 W/m 8,2 C 16,8 C 12,9 km/h (3 Bft) 95,74 %
30.03.2017 18:06 17,6 C 52 % 1023,7 hPa 0,0 l/m 5,5 km/h (1 Bft) N-NO 29 2 min 0,000 mm 0,0 UV-I 165 W/m 7,6 C 17,6 C 9,7 km/h (2 Bft) 100,00 %
30.03.2017 18:08 17,6 C 52 % 1023,7 hPa 0,0 l/m 6,6 km/h (2 Bft) N-NO 26 2 min 0,000 mm 0,0 UV-I 159 W/m 7,6 C 17,5 C 8,0 km/h (2 Bft) 97,87 %
30.03.2017 18:10 17,5 C 53 % 1023,7 hPa 0,0 l/m 1,6 km/h (1 Bft) N-NO 26 2 min 0,000 mm 0,0 UV-I 154 W/m 7,8 C 17,5 C 6,4 km/h (2 Bft) 97,87 %
30.03.2017 18:12 17,5 C 54 % 1023,6 hPa 0,0 l/m 4,8 km/h (1 Bft) N-NO 15 2 min 0,000 mm 0,0 UV-I 147 W/m 8,1 C 17,5 C 8,0 km/h (2 Bft) 95,74 %
30.03.2017 18:14 17,4 C 53 % 1023,7 hPa 0,0 l/m 5,7 km/h (1 Bft) N-NO 25 2 min 0,000 mm 0,0 UV-I 144 W/m 7,7 C 17,4 C 8,0 km/h (2 Bft) 96,23 %
30.03.2017 18:16 17,4 C 53 % 1023,6 hPa 0,0 l/m 4,8 km/h (1 Bft) N-NO 28 2 min 0,000 mm 0,0 UV-I 138 W/m 7,7 C 17,4 C 6,4 km/h (2 Bft) 95,74 %
30.03.2017 18:18 17,3 C 53 % 1023,7 hPa 0,0 l/m 3,5 km/h (1 Bft) N-NO 26 2 min 0,000 mm 0,0 UV-I 134 W/m 7,6 C 17,3 C 6,4 km/h (2 Bft) 93,62 %
30.03.2017 18:20 17,4 C 53 % 1023,6 hPa 0,0 l/m 4,2 km/h (1 Bft) NO 34 2 min 0,000 mm 0,0 UV-I 129 W/m 7,7 C 17,4 C 4,8 km/h (1 Bft) 93,62 %
30.03.2017 18:22 17,4 C 52 % 1023,6 hPa 0,0 l/m 3,4 km/h (1 Bft) NO 34 2 min 0,000 mm 0,0 UV-I 124 W/m 7,4 C 17,4 C 6,4 km/h (2 Bft) 95,74 %
30.03.2017 18:24 17,3 C 53 % 1023,6 hPa 0,0 l/m 3,9 km/h (1 Bft) NO 34 2 min 0,000 mm 0,0 UV-I 118 W/m 7,6 C 17,3 C 6,4 km/h (2 Bft) 97,87 %
30.03.2017 18:26 17,4 C 51 % 1023,6 hPa 0,0 l/m 3,6 km/h (1 Bft) NO 34 2 min 0,000 mm 0,0 UV-I 114 W/m 7,2 C 17,4 C 6,4 km/h (2 Bft) 100,00 %
30.03.2017 18:28 17,4 C 51 % 1023,6 hPa 0,0 l/m 2,4 km/h (1 Bft) NO 34 2 min 0,000 mm 0,0 UV-I 110 W/m 7,2 C 17,4 C 4,8 km/h (1 Bft) 96,00 %
30.03.2017 18:30 17,4 C 52 % 1023,6 hPa 0,0 l/m 4,8 km/h (1 Bft) N-NO 28 2 min 0,000 mm 0,0 UV-I 105 W/m 7,4 C 17,4 C 6,4 km/h (2 Bft) 93,88 %
30.03.2017 18:33 17,3 C 54 % 1023,6 hPa 0,0 l/m 5,2 km/h (1 Bft) NO 40 3 min 0,000 mm 0,0 UV-I 100 W/m 7,9 C 17,3 C 6,4 km/h (2 Bft) 95,89 %
30.03.2017 18:34 17,2 C 54 % 1023,6 hPa 0,0 l/m 3,2 km/h (1 Bft) NO 40 1 min 0,000 mm 0,0 UV-I 96 W/m 7,8 C 17,2 C 4,8 km/h (1 Bft) 95,83 %
30.03.2017 18:36 17,3 C 55 % 1023,6 hPa 0,0 l/m 3,7 km/h (1 Bft) O-NO 57 2 min 0,000 mm 0,0 UV-I 93 W/m 8,2 C 17,3 C 6,4 km/h (2 Bft) 97,96 %
30.03.2017 18:38 17,3 C 55 % 1023,6 hPa 0,0 l/m 5,1 km/h (1 Bft) NO 55 2 min 0,000 mm 0,0 UV-I 89 W/m 8,2 C 17,3 C 6,4 km/h (2 Bft) 95,74 %
30.03.2017 18:40 17,3 C 54 % 1023,6 hPa 0,0 l/m 4,9 km/h (1 Bft) O-NO 65 2 min 0,000 mm 0,0 UV-I 85 W/m 7,9 C 17,3 C 6,4 km/h (2 Bft) 97,87 %
30.03.2017 18:42 17,3 C 55 % 1023,6 hPa 0,0 l/m 4,3 km/h (1 Bft) O-NO 61 2 min 0,000 mm 0,0 UV-I 81 W/m 8,2 C 17,3 C 6,4 km/h (2 Bft) 97,87 %
30.03.2017 18:44 17,2 C 55 % 1023,6 hPa 0,0 l/m 4,6 km/h (1 Bft) O-NO 57 2 min 0,000 mm 0,0 UV-I 76 W/m 8,1 C 17,2 C 8,0 km/h (2 Bft) 93,62 %
30.03.2017 18:46 17,1 C 54 % 1023,6 hPa 0,0 l/m 5,0 km/h (1 Bft) O-NO 71 2 min 0,000 mm 0,0 UV-I 71 W/m 7,7 C 17,1 C 8,0 km/h (2 Bft) 91,49 %
30.03.2017 18:48 17,1 C 54 % 1023,6 hPa 0,0 l/m 6,7 km/h (2 Bft) O-NO 73 2 min 0,000 mm 0,0 UV-I 68 W/m 7,7 C 17,0 C 9,7 km/h (2 Bft) 97,37 %
30.03.2017 18:50 17,0 C 56 % 1023,6 hPa 0,0 l/m 5,5 km/h (1 Bft) O-NO 68 2 min 0,000 mm 0,0 UV-I 63 W/m 8,2 C 17,0 C 8,0 km/h (2 Bft) 95,74 %
30.03.2017 18:52 16,9 C 56 % 1023,6 hPa 0,0 l/m 4,0 km/h (1 Bft) O-NO 68 2 min 0,000 mm 0,0 UV-I 59 W/m 8,1 C 16,9 C 6,4 km/h (2 Bft) 95,74 %
30.03.2017 18:54 16,8 C 56 % 1023,6 hPa 0,0 l/m 4,3 km/h (1 Bft) O-NO 68 2 min 0,000 mm 0,0 UV-I 54 W/m 8,0 C 16,8 C 8,0 km/h (2 Bft) 93,62 %
30.03.2017 18:56 16,7 C 56 % 1023,6 hPa 0,0 l/m 5,4 km/h (1 Bft) NO 50 2 min 0,000 mm 0,0 UV-I 50 W/m 7,9 C 16,7 C 6,4 km/h (2 Bft) 93,62 %
30.03.2017 18:58 16,7 C 57 % 1023,6 hPa 0,0 l/m 5,3 km/h (1 Bft) O-NO 63 2 min 0,000 mm 0,0 UV-I 47 W/m 8,1 C 16,7 C 6,4 km/h (2 Bft) 97,87 %
30.03.2017 19:00 16,6 C 57 % 1023,6 hPa 0,0 l/m 4,6 km/h (1 Bft) O-NO 71 2 min 0,000 mm 0,0 UV-I 44 W/m 8,0 C 16,6 C 6,4 km/h (2 Bft) 93,62 %
30.03.2017 19:02 16,5 C 58 % 1023,6 hPa 0,0 l/m 5,2 km/h (1 Bft) O-NO 68 2 min 0,102 mm 0,0 UV-I 40 W/m 8,2 C 16,5 C 6,4 km/h (2 Bft) 96,00 %
30.03.2017 19:04 16,3 C 57 % 1023,6 hPa 0,0 l/m 5,2 km/h (1 Bft) O-NO 66 2 min 0,000 mm 0,0 UV-I 37 W/m 7,8 C 16,3 C 8,0 km/h (2 Bft) 95,83 %
30.03.2017 19:06 16,2 C 57 % 1023,6 hPa 0,0 l/m 5,8 km/h (2 Bft) O-NO 67 2 min 0,000 mm 0,0 UV-I 34 W/m 7,7 C 16,2 C 8,0 km/h (2 Bft) 91,84 %
30.03.2017 19:08 16,2 C 58 % 1023,6 hPa 0,0 l/m 5,3 km/h (1 Bft) O-NO 75 2 min 0,000 mm 0,0 UV-I 31 W/m 7,9 C 16,2 C 8,0 km/h (2 Bft) 93,62 %
30.03.2017 19:10 16,1 C 59 % 1023,5 hPa 0,0 l/m 5,3 km/h (1 Bft) O-NO 78 2 min 0,000 mm 0,0 UV-I 28 W/m 8,1 C 16,1 C 8,0 km/h (2 Bft) 93,62 %
30.03.2017 19:12 16,1 C 59 % 1023,6 hPa 0,0 l/m 4,7 km/h (1 Bft) O 82 2 min 0,000 mm 0,0 UV-I 26 W/m 8,1 C 16,1 C 6,4 km/h (2 Bft) 95,74 %
30.03.2017 19:14 15,9 C 59 % 1023,6 hPa 0,0 l/m 3,2 km/h (1 Bft) O 82 2 min 0,000 mm 0,0 UV-I 24 W/m 7,9 C 15,9 C 4,8 km/h (1 Bft) 93,62 %
30.03.2017 19:16 15,9 C 57 % 1023,5 hPa 0,0 l/m 3,5 km/h (1 Bft) O 82 2 min 0,000 mm 0,0 UV-I 21 W/m 7,4 C 15,9 C 4,8 km/h (1 Bft) 94,59 %
30.03.2017 19:18 16,0 C 57 % 1023,6 hPa 0,0 l/m 3,3 km/h (1 Bft) O 82 2 min 0,000 mm 0,0 UV-I 19 W/m 7,5 C 16,0 C 4,8 km/h (1 Bft) 96,00 %
30.03.2017 19:20 16,1 C 57 % 1023,5 hPa 0,0 l/m 4,3 km/h (1 Bft) NO 56 2 min 0,000 mm 0,0 UV-I 17 W/m 7,6 C 16,1 C 8,0 km/h (2 Bft) 93,62 %
30.03.2017 19:22 16,1 C 57 % 1023,6 hPa 0,0 l/m 3,8 km/h (1 Bft) NO 56 0 min 0,000 mm 0,0 UV-I 14 W/m 7,6 C 16,1 C 4,8 km/h (1 Bft) 98,00 %
30.03.2017 19:24 16,1 C 58 % 1023,6 hPa 0,0 l/m 4,0 km/h (1 Bft) NO 56 0 min 0,000 mm 0,0 UV-I 12 W/m 7,8 C 16,1 C 4,8 km/h (1 Bft) 93,62 %
30.03.2017 19:26 15,8 C 58 % 1023,6 hPa 0,0 l/m 3,5 km/h (1 Bft) NO 56 0 min 0,000 mm 0,0 UV-I 11 W/m 7,6 C 15,8 C 4,8 km/h (1 Bft) 94,00 %
30.03.2017 19:28 15,6 C 59 % 1023,6 hPa 0,0 l/m 3,0 km/h (1 Bft) NO 56 0 min 0,000 mm 0,0 UV-I 10 W/m 7,6 C 15,6 C 4,8 km/h (1 Bft) 91,49 %
30.03.2017 19:30 15,4 C 60 % 1023,6 hPa 0,0 l/m 4,1 km/h (1 Bft) NO 56 0 min 0,000 mm 0,0 UV-I 9 W/m 7,7 C 15,4 C 6,4 km/h (2 Bft) 95,74 %
30.03.2017 19:32 15,4 C 59 % 1023,6 hPa 0,0 l/m 3,8 km/h (1 Bft) O-NO 62 0 min 0,000 mm 0,0 UV-I 8 W/m 7,4 C 15,4 C 4,8 km/h (1 Bft) 94,74 %
30.03.2017 19:34 15,4 C 59 % 1023,6 hPa 0,0 l/m 4,4 km/h (1 Bft) O-NO 64 0 min 0,000 mm 0,0 UV-I 7 W/m 7,4 C 15,4 C 6,4 km/h (2 Bft) 95,74 %
30.03.2017 19:36 15,3 C 59 % 1023,6 hPa 0,0 l/m 3,6 km/h (1 Bft) O-NO 64 0 min 0,000 mm 0,0 UV-I 7 W/m 7,3 C 15,3 C 6,4 km/h (2 Bft) 95,74 %
30.03.2017 19:38 15,2 C 59 % 1023,6 hPa 0,0 l/m 3,7 km/h (1 Bft) O-NO 64 0 min 0,000 mm 0,0 UV-I 5 W/m 7,2 C 15,2 C 4,8 km/h (1 Bft) 96,00 %
30.03.2017 19:40 15,2 C 59 % 1023,6 hPa 0,0 l/m 3,4 km/h (1 Bft) O-NO 64 0 min 0,000 mm 0,0 UV-I 5 W/m 7,2 C 15,2 C 4,8 km/h (1 Bft) 97,87 %
30.03.2017 19:42 15,3 C 59 % 1023,6 hPa 0,0 l/m 3,1 km/h (1 Bft) O-NO 64 0 min 0,000 mm 0,0 UV-I 5 W/m 7,3 C 15,3 C 4,8 km/h (1 Bft) 96,00 %
30.03.2017 19:44 15,3 C 59 % 1023,6 hPa 0,0 l/m 3,1 km/h (1 Bft) O-NO 64 0 min 0,000 mm 0,0 UV-I 3 W/m 7,3 C 15,3 C 4,8 km/h (1 Bft) 95,12 %
30.03.2017 19:46 15,2 C 60 % 1023,6 hPa 0,0 l/m 3,4 km/h (1 Bft) O-NO 64 0 min 0,000 mm 0,0 UV-I 0 W/m 7,5 C 15,2 C 4,8 km/h (1 Bft) 92,00 %
30.03.2017 19:48 14,9 C 60 % 1023,6 hPa 0,0 l/m 3,5 km/h (1 Bft) O-NO 64 0 min 0,000 mm 0,0 UV-I 0 W/m 7,2 C 14,9 C 4,8 km/h (1 Bft) 95,74 %
30.03.2017 19:50 14,8 C 60 % 1023,6 hPa 0,0 l/m 4,1 km/h (1 Bft) O-NO 64 0 min 0,000 mm 0,0 UV-I 0 W/m 7,1 C 14,8 C 6,4 km/h (2 Bft) 89,36 %
30.03.2017 19:52 14,9 C 60 % 1023,6 hPa 0,0 l/m 4,4 km/h (1 Bft) O-NO 64 0 min 0,000 mm 0,0 UV-I 0 W/m 7,2 C 14,9 C 6,4 km/h (2 Bft) 95,74 %
30.03.2017 19:54 14,8 C 60 % 1023,6 hPa 0,0 l/m 4,6 km/h (1 Bft) O-NO 65 0 min 0,000 mm 0,0 UV-I 0 W/m 7,1 C 14,8 C 6,4 km/h (2 Bft) 95,74 %
30.03.2017 19:56 14,6 C 61 % 1023,7 hPa 0,0 l/m 3,8 km/h (1 Bft) O-NO 65 0 min 0,000 mm 0,0 UV-I 0 W/m 7,2 C 14,6 C 6,4 km/h (2 Bft) 93,62 %
30.03.2017 19:58 14,4 C 61 % 1023,6 hPa 0,0 l/m 5,2 km/h (1 Bft) O-NO 69 0 min 0,000 mm 0,0 UV-I 0 W/m 7,0 C 14,4 C 6,4 km/h (2 Bft) 93,62 %
30.03.2017 20:00 14,4 C 61 % 1023,6 hPa 0,0 l/m 5,6 km/h (1 Bft) O-NO 67 0 min 0,000 mm 0,0 UV-I 0 W/m 7,0 C 14,4 C 8,0 km/h (2 Bft) 95,74 %
30.03.2017 20:02 14,4 C 61 % 1023,7 hPa 0,0 l/m 4,9 km/h (1 Bft) O-NO 76 0 min 0,025 mm 0,0 UV-I 0 W/m 7,0 C 14,4 C 8,0 km/h (2 Bft) 93,62 %
30.03.2017 20:04 14,6 C 60 % 1023,7 hPa 0,0 l/m 5,3 km/h (1 Bft) O 79 0 min 0,000 mm 0,0 UV-I 0 W/m 6,9 C 14,6 C 6,4 km/h (2 Bft) 91,49 %
30.03.2017 20:06 14,7 C 59 % 1023,7 hPa 0,0 l/m 6,2 km/h (2 Bft) O-NO 78 0 min 0,000 mm 0,0 UV-I 0 W/m 6,8 C 14,7 C 8,0 km/h (2 Bft) 95,74 %
30.03.2017 20:08 14,8 C 59 % 1023,8 hPa 0,0 l/m 4,5 km/h (1 Bft) O-NO 77 0 min 0,000 mm 0,0 UV-I 0 W/m 6,9 C 14,8 C 6,4 km/h (2 Bft) 94,00 %
30.03.2017 20:10 14,9 C 59 % 1023,8 hPa 0,0 l/m 5,0 km/h (1 Bft) O 79 0 min 0,000 mm 0,0 UV-I 0 W/m 7,0 C 14,9 C 6,4 km/h (2 Bft) 95,74 %
30.03.2017 20:12 14,9 C 59 % 1023,8 hPa 0,0 l/m 5,0 km/h (1 Bft) O-NO 78 0 min 0,000 mm 0,0 UV-I 0 W/m 7,0 C 14,9 C 6,4 km/h (2 Bft) 93,62 %
30.03.2017 20:14 14,9 C 59 % 1023,8 hPa 0,0 l/m 5,1 km/h (1 Bft) O 79 0 min 0,000 mm 0,0 UV-I 0 W/m 7,0 C 14,9 C 6,4 km/h (2 Bft) 94,74 %
30.03.2017 20:16 14,9 C 59 % 1023,8 hPa 0,0 l/m 5,4 km/h (1 Bft) O-NO 74 0 min 0,000 mm 0,0 UV-I 0 W/m 7,0 C 14,9 C 8,0 km/h (2 Bft) 95,74 %
30.03.2017 20:18 14,8 C 59 % 1023,8 hPa 0,0 l/m 5,1 km/h (1 Bft) O-NO 72 0 min 0,000 mm 0,0 UV-I 0 W/m 6,9 C 14,8 C 6,4 km/h (2 Bft) 96,23 %
30.03.2017 20:20 14,9 C 59 % 1023,8 hPa 0,0 l/m 4,6 km/h (1 Bft) O-NO 72 0 min 0,000 mm 0,0 UV-I 0 W/m 7,0 C 14,9 C 6,4 km/h (2 Bft) 95,74 %
30.03.2017 20:22 14,9 C 59 % 1023,8 hPa 0,0 l/m 4,9 km/h (1 Bft) O 82 0 min 0,000 mm 0,0 UV-I 0 W/m 7,0 C 14,9 C 6,4 km/h (2 Bft) 97,87 %
30.03.2017 20:24 14,9 C 59 % 1023,8 hPa 0,0 l/m 5,6 km/h (1 Bft) O 82 0 min 0,000 mm 0,0 UV-I 0 W/m 7,0 C 14,9 C 11,3 km/h (2 Bft) 100,00 %
30.03.2017 20:26 14,8 C 59 % 1023,9 hPa 0,0 l/m 5,8 km/h (2 Bft) O 98 0 min 0,000 mm 0,0 UV-I 0 W/m 6,9 C 14,8 C 8,0 km/h (2 Bft) 93,62 %
30.03.2017 20:28 14,7 C 60 % 1023,9 hPa 0,0 l/m 4,4 km/h (1 Bft) O 86 0 min 0,000 mm 0,0 UV-I 0 W/m 7,0 C 14,7 C 6,4 km/h (2 Bft) 96,00 %
30.03.2017 20:30 14,4 C 60 % 1023,9 hPa 0,0 l/m 5,6 km/h (1 Bft) O-NO 77 0 min 0,000 mm 0,0 UV-I 0 W/m 6,7 C 14,4 C 8,0 km/h (2 Bft) 100,00 %
30.03.2017 20:32 14,2 C 61 % 1023,9 hPa 0,0 l/m 5,7 km/h (1 Bft) O 88 0 min 0,000 mm 0,0 UV-I 0 W/m 6,8 C 14,2 C 11,3 km/h (2 Bft) 97,87 %
30.03.2017 20:34 14,2 C 62 % 1023,9 hPa 0,0 l/m 6,1 km/h (2 Bft) O 80 0 min 0,000 mm 0,0 UV-I 0 W/m 7,0 C 14,2 C 8,0 km/h (2 Bft) 100,00 %
30.03.2017 20:36 14,3 C 61 % 1023,9 hPa 0,0 l/m 5,1 km/h (1 Bft) O 80 0 min 0,000 mm 0,0 UV-I 0 W/m 6,9 C 14,3 C 8,0 km/h (2 Bft) 97,87 %
30.03.2017 20:38 14,4 C 60 % 1023,9 hPa 0,0 l/m 5,4 km/h (1 Bft) O 82 0 min 0,000 mm 0,0 UV-I 0 W/m 6,7 C 14,4 C 8,0 km/h (2 Bft) 98,00 %
30.03.2017 20:40 14,6 C 60 % 1024,0 hPa 0,0 l/m 5,0 km/h (1 Bft) O 87 0 min 0,000 mm 0,0 UV-I 0 W/m 6,9 C 14,6 C 9,7 km/h (2 Bft) 100,00 %
30.03.2017 20:42 14,6 C 60 % 1024,0 hPa 0,0 l/m 5,6 km/h (1 Bft) O 83 0 min 0,000 mm 0,0 UV-I 0 W/m 6,9 C 14,6 C 8,0 km/h (2 Bft) 100,00 %
30.03.2017 20:44 14,7 C 59 % 1023,9 hPa 0,0 l/m 6,0 km/h (2 Bft) O-NO 70 0 min 0,000 mm 0,0 UV-I 0 W/m 6,8 C 14,7 C 8,0 km/h (2 Bft) 97,14 %
30.03.2017 20:46 14,7 C 59 % 1024,0 hPa 0,0 l/m 5,9 km/h (2 Bft) O 91 0 min 0,000 mm 0,0 UV-I 0 W/m 6,8 C 14,7 C 8,0 km/h (2 Bft) 96,00 %
30.03.2017 20:48 14,6 C 60 % 1024,0 hPa 0,0 l/m 4,6 km/h (1 Bft) O 97 0 min 0,000 mm 0,0 UV-I 0 W/m 6,9 C 14,6 C 6,4 km/h (2 Bft) 100,00 %
30.03.2017 20:50 14,4 C 60 % 1024,0 hPa 0,0 l/m 5,2 km/h (1 Bft) O 84 0 min 0,000 mm 0,0 UV-I 0 W/m 6,7 C 14,4 C 8,0 km/h (2 Bft) 93,62 %
30.03.2017 20:52 14,2 C 61 % 1024,0 hPa 0,0 l/m 5,8 km/h (2 Bft) O 94 0 min 0,000 mm 0,0 UV-I 0 W/m 6,8 C 14,2 C 14,5 km/h (3 Bft) 97,87 %
30.03.2017 20:54 14,0 C 62 % 1024,0 hPa 0,0 l/m 5,5 km/h (1 Bft) O-SO 113 0 min 0,000 mm 0,0 UV-I 0 W/m 6,8 C 14,0 C 9,7 km/h (2 Bft) 95,74 %
30.03.2017 20:56 13,9 C 62 % 1024,1 hPa 0,0 l/m 7,2 km/h (2 Bft) O-NO 76 0 min 0,000 mm 0,0 UV-I 0 W/m 6,7 C 13,4 C 11,3 km/h (2 Bft) 100,00 %
30.03.2017 20:58 14,0 C 61 % 1024,1 hPa 0,0 l/m 7,8 km/h (2 Bft) NO 48 0 min 0,000 mm 0,0 UV-I 0 W/m 6,6 C 13,2 C 14,5 km/h (3 Bft) 95,74 %
30.03.2017 21:00 14,2 C 61 % 1024,1 hPa 0,0 l/m 6,9 km/h (2 Bft) O-NO 70 0 min 0,000 mm 0,0 UV-I 0 W/m 6,8 C 13,9 C 12,9 km/h (3 Bft) 98,00 %
30.03.2017 21:02 14,4 C 60 % 1024,1 hPa 0,0 l/m 6,9 km/h (2 Bft) O-NO 76 0 min 0,026 mm 0,0 UV-I 0 W/m 6,7 C 14,1 C 11,3 km/h (2 Bft) 92,68 %
30.03.2017 21:04 14,4 C 60 % 1024,1 hPa 0,0 l/m 6,7 km/h (2 Bft) O-NO 78 0 min 0,000 mm 0,0 UV-I 0 W/m 6,7 C 14,2 C 11,3 km/h (2 Bft) 98,00 %
30.03.2017 21:06 14,5 C 60 % 1024,1 hPa 0,0 l/m 5,9 km/h (2 Bft) O-NO 78 0 min 0,000 mm 0,0 UV-I 0 W/m 6,8 C 14,5 C 8,0 km/h (2 Bft) 95,74 %
30.03.2017 21:08 14,4 C 60 % 1024,1 hPa 0,0 l/m 6,5 km/h (2 Bft) O-NO 65 0 min 0,000 mm 0,0 UV-I 0 W/m 6,7 C 14,4 C 11,3 km/h (2 Bft) 97,87 %
30.03.2017 21:10 14,4 C 60 % 1024,1 hPa 0,0 l/m 6,8 km/h (2 Bft) O 81 0 min 0,000 mm 0,0 UV-I 0 W/m 6,7 C 14,2 C 8,0 km/h (2 Bft) 93,62 %
30.03.2017 21:12 14,3 C 60 % 1024,1 hPa 0,0 l/m 5,6 km/h (1 Bft) O 101 0 min 0,000 mm 0,0 UV-I 0 W/m 6,6 C 14,3 C 9,7 km/h (2 Bft) 96,00 %
30.03.2017 21:14 14,2 C 61 % 1024,1 hPa 0,0 l/m 5,1 km/h (1 Bft) O 84 0 min 0,000 mm 0,0 UV-I 0 W/m 6,8 C 14,2 C 8,0 km/h (2 Bft) 95,74 %
30.03.2017 21:16 14,2 C 61 % 1024,1 hPa 0,0 l/m 8,4 km/h (2 Bft) O-NO 74 0 min 0,000 mm 0,0 UV-I 0 W/m 6,8 C 13,0 C 14,5 km/h (3 Bft) 91,49 %
30.03.2017 21:18 14,2 C 61 % 1024,1 hPa 0,0 l/m 8,1 km/h (2 Bft) O-NO 76 0 min 0,000 mm 0,0 UV-I 0 W/m 6,8 C 13,2 C 12,9 km/h (3 Bft) 92,68 %
30.03.2017 21:20 14,2 C 61 % 1024,1 hPa 0,0 l/m 8,2 km/h (2 Bft) O-NO 74 0 min 0,000 mm 0,0 UV-I 0 W/m 6,8 C 13,2 C 12,9 km/h (3 Bft) 98,11 %
30.03.2017 21:22 14,2 C 61 % 1024,1 hPa 0,0 l/m 6,2 km/h (2 Bft) O-NO 65 0 min 0,000 mm 0,0 UV-I 0 W/m 6,8 C 14,2 C 8,0 km/h (2 Bft) 97,37 %
30.03.2017 21:24 14,1 C 61 % 1024,1 hPa 0,0 l/m 8,6 km/h (2 Bft) O 80 0 min 0,000 mm 0,0 UV-I 0 W/m 6,7 C 12,8 C 12,9 km/h (3 Bft) 93,62 %
30.03.2017 21:26 14,1 C 61 % 1024,1 hPa 0,0 l/m 6,1 km/h (2 Bft) O-NO 78 0 min 0,000 mm 0,0 UV-I 0 W/m 6,7 C 14,1 C 9,7 km/h (2 Bft) 97,87 %
30.03.2017 21:28 14,1 C 61 % 1024,1 hPa 0,0 l/m 7,2 km/h (2 Bft) O 94 0 min 0,000 mm 0,0 UV-I 0 W/m 6,7 C 13,6 C 11,3 km/h (2 Bft) 96,23 %
30.03.2017 21:30 14,0 C 61 % 1024,1 hPa 0,0 l/m 6,4 km/h (2 Bft) O-SO 107 0 min 0,000 mm 0,0 UV-I 0 W/m 6,6 C 14,0 C 9,7 km/h (2 Bft) 92,00 %
30.03.2017 21:32 13,9 C 62 % 1024,1 hPa 0,0 l/m 5,7 km/h (1 Bft) O-NO 72 0 min 0,000 mm 0,0 UV-I 0 W/m 6,7 C 13,9 C 9,7 km/h (2 Bft) 97,87 %
30.03.2017 21:34 13,8 C 62 % 1024,1 hPa 0,0 l/m 6,2 km/h (2 Bft) O 80 0 min 0,000 mm 0,0 UV-I 0 W/m 6,6 C 13,8 C 11,3 km/h (2 Bft) 100,00 %
30.03.2017 21:36 13,7 C 63 % 1024,1 hPa 0,0 l/m 5,7 km/h (1 Bft) O-SO 103 0 min 0,000 mm 0,0 UV-I 0 W/m 6,8 C 13,7 C 9,7 km/h (2 Bft) 100,00 %
30.03.2017 21:38 13,7 C 63 % 1024,1 hPa 0,0 l/m 6,5 km/h (2 Bft) O 81 0 min 0,000 mm 0,0 UV-I 0 W/m 6,8 C 13,7 C 11,3 km/h (2 Bft) 98,36 %
30.03.2017 21:40 13,7 C 63 % 1024,1 hPa 0,0 l/m 7,9 km/h (2 Bft) O-NO 74 0 min 0,000 mm 0,0 UV-I 0 W/m 6,8 C 12,8 C 12,9 km/h (3 Bft) 100,00 %
30.03.2017 21:42 13,6 C 63 % 1024,1 hPa 0,0 l/m 7,0 km/h (2 Bft) O-SO 103 0 min 0,000 mm 0,0 UV-I 0 W/m 6,7 C 13,2 C 11,3 km/h (2 Bft) 98,00 %
30.03.2017 21:44 13,7 C 63 % 1024,2 hPa 0,0 l/m 8,5 km/h (2 Bft) O 84 0 min 0,000 mm 0,0 UV-I 0 W/m 6,8 C 12,5 C 12,9 km/h (3 Bft) 94,00 %
30.03.2017 21:46 13,6 C 63 % 1024,1 hPa 0,0 l/m 7,6 km/h (2 Bft) O 84 0 min 0,000 mm 0,0 UV-I 0 W/m 6,7 C 12,9 C 11,3 km/h (2 Bft) 97,87 %
30.03.2017 21:48 13,7 C 63 % 1024,1 hPa 0,0 l/m 7,2 km/h (2 Bft) O 91 0 min 0,000 mm 0,0 UV-I 0 W/m 6,8 C 13,2 C 11,3 km/h (2 Bft) 100,00 %
30.03.2017 21:50 13,6 C 63 % 1024,1 hPa 0,0 l/m 6,0 km/h (2 Bft) O 84 0 min 0,000 mm 0,0 UV-I 0 W/m 6,7 C 13,6 C 11,3 km/h (2 Bft) 100,00 %
30.03.2017 21:52 13,5 C 63 % 1024,1 hPa 0,0 l/m 6,6 km/h (2 Bft) O 93 0 min 0,000 mm 0,0 UV-I 0 W/m 6,6 C 13,4 C 12,9 km/h (3 Bft) 100,00 %
30.03.2017 21:54 13,3 C 64 % 1024,2 hPa 0,0 l/m 6,6 km/h (2 Bft) O 88 0 min 0,000 mm 0,0 UV-I 0 W/m 6,6 C 13,2 C 11,3 km/h (2 Bft) 97,87 %
30.03.2017 21:56 13,2 C 64 % 1024,1 hPa 0,0 l/m 6,8 km/h (2 Bft) O 91 0 min 0,000 mm 0,0 UV-I 0 W/m 6,5 C 13,0 C 12,9 km/h (3 Bft) 100,00 %
30.03.2017 21:58 13,2 C 64 % 1024,1 hPa 0,0 l/m 5,9 km/h (2 Bft) O 99 0 min 0,000 mm 0,0 UV-I 0 W/m 6,5 C 13,2 C 9,7 km/h (2 Bft) 100,00 %
30.03.2017 22:00 13,3 C 64 % 1024,1 hPa 0,0 l/m 5,2 km/h (1 Bft) O 96 0 min 0,000 mm 0,0 UV-I 0 W/m 6,6 C 13,3 C 9,7 km/h (2 Bft) 97,87 %
30.03.2017 22:02 13,2 C 65 % 1024,1 hPa 0,0 l/m 6,2 km/h (2 Bft) O-SO 105 0 min 0,050 mm 0,0 UV-I 0 W/m 6,8 C 13,2 C 11,3 km/h (2 Bft) 97,87 %
30.03.2017 22:04 13,1 C 65 % 1024,1 hPa 0,0 l/m 7,6 km/h (2 Bft) O 96 0 min 0,000 mm 0,0 UV-I 0 W/m 6,7 C 12,3 C 11,3 km/h (2 Bft) 95,74 %
30.03.2017 22:06 13,2 C 65 % 1024,1 hPa 0,0 l/m 7,6 km/h (2 Bft) O-NO 74 0 min 0,000 mm 0,0 UV-I 0 W/m 6,8 C 12,5 C 11,3 km/h (2 Bft) 97,87 %
30.03.2017 22:08 13,2 C 65 % 1024,1 hPa 0,0 l/m 6,6 km/h (2 Bft) O 90 0 min 0,000 mm 0,0 UV-I 0 W/m 6,8 C 13,1 C 11,3 km/h (2 Bft) 100,00 %
30.03.2017 22:10 13,2 C 65 % 1024,1 hPa 0,0 l/m 5,3 km/h (1 Bft) O 85 0 min 0,000 mm 0,0 UV-I 0 W/m 6,8 C 13,2 C 9,7 km/h (2 Bft) 95,74 %
30.03.2017 22:12 13,2 C 65 % 1024,1 hPa 0,0 l/m 5,5 km/h (1 Bft) O 80 0 min 0,000 mm 0,0 UV-I 0 W/m 6,8 C 13,2 C 9,7 km/h (2 Bft) 94,29 %
30.03.2017 22:14 13,2 C 65 % 1024,1 hPa 0,0 l/m 7,1 km/h (2 Bft) O-SO 119 0 min 0,000 mm 0,0 UV-I 0 W/m 6,8 C 12,8 C 11,3 km/h (2 Bft) 100,00 %
30.03.2017 22:16 13,1 C 65 % 1024,1 hPa 0,0 l/m 6,3 km/h (2 Bft) O-NO 71 0 min 0,000 mm 0,0 UV-I 0 W/m 6,7 C 13,1 C 9,7 km/h (2 Bft) 100,00 %
30.03.2017 22:18 13,1 C 65 % 1024,2 hPa 0,0 l/m 6,8 km/h (2 Bft) O 81 0 min 0,000 mm 0,0 UV-I 0 W/m 6,7 C 12,9 C 11,3 km/h (2 Bft) 100,00 %
30.03.2017 22:20 13,1 C 65 % 1024,1 hPa 0,0 l/m 6,1 km/h (2 Bft) O-NO 72 0 min 0,000 mm 0,0 UV-I 0 W/m 6,7 C 13,1 C 8,0 km/h (2 Bft) 100,00 %
30.03.2017 22:22 13,1 C 65 % 1024,1 hPa 0,0 l/m 6,3 km/h (2 Bft) O 86 0 min 0,000 mm 0,0 UV-I 0 W/m 6,7 C 13,1 C 11,3 km/h (2 Bft) 97,87 %
30.03.2017 22:24 13,1 C 65 % 1024,1 hPa 0,0 l/m 5,4 km/h (1 Bft) O 89 0 min 0,000 mm 0,0 UV-I 0 W/m 6,7 C 13,1 C 9,7 km/h (2 Bft) 100,00 %
30.03.2017 22:26 13,0 C 65 % 1024,1 hPa 0,0 l/m 6,0 km/h (2 Bft) O-NO 70 0 min 0,000 mm 0,0 UV-I 0 W/m 6,6 C 13,0 C 8,0 km/h (2 Bft) 100,00 %
30.03.2017 22:28 12,9 C 65 % 1024,1 hPa 0,0 l/m 6,7 km/h (2 Bft) O-NO 71 0 min 0,000 mm 0,0 UV-I 0 W/m 6,5 C 12,7 C 9,7 km/h (2 Bft) 96,00 %
30.03.2017 22:30 13,0 C 65 % 1024,0 hPa 0,0 l/m 5,3 km/h (1 Bft) O 89 0 min 0,000 mm 0,0 UV-I 0 W/m 6,6 C 13,0 C 9,7 km/h (2 Bft) 97,87 %
30.03.2017 22:32 13,0 C 65 % 1024,0 hPa 0,0 l/m 5,8 km/h (2 Bft) O-NO 64 0 min 0,000 mm 0,0 UV-I 0 W/m 6,6 C 13,0 C 8,0 km/h (2 Bft) 97,14 %
30.03.2017 22:34 12,9 C 65 % 1024,0 hPa 0,0 l/m 6,9 km/h (2 Bft) O 79 0 min 0,000 mm 0,0 UV-I 0 W/m 6,5 C 12,6 C 11,3 km/h (2 Bft) 100,00 %
30.03.2017 22:36 13,0 C 65 % 1024,0 hPa 0,0 l/m 7,3 km/h (2 Bft) O 81 0 min 0,000 mm 0,0 UV-I 0 W/m 6,6 C 12,4 C 11,3 km/h (2 Bft) 97,87 %
30.03.2017 22:38 13,1 C 65 % 1023,9 hPa 0,0 l/m 6,3 km/h (2 Bft) O-NO 76 0 min 0,000 mm 0,0 UV-I 0 W/m 6,7 C 13,1 C 8,0 km/h (2 Bft) 100,00 %
30.03.2017 22:40 13,0 C 65 % 1023,9 hPa 0,0 l/m 6,6 km/h (2 Bft) O 88 0 min 0,000 mm 0,0 UV-I 0 W/m 6,6 C 12,9 C 11,3 km/h (2 Bft) 100,00 %
30.03.2017 22:42 13,1 C 65 % 1023,8 hPa 0,0 l/m 5,9 km/h (2 Bft) O 89 0 min 0,000 mm 0,0 UV-I 0 W/m 6,7 C 13,1 C 11,3 km/h (2 Bft) 100,00 %
30.03.2017 22:44 13,0 C 65 % 1023,8 hPa 0,0 l/m 6,4 km/h (2 Bft) O-NO 78 0 min 0,000 mm 0,0 UV-I 0 W/m 6,6 C 13,0 C 11,3 km/h (2 Bft) 100,00 %
30.03.2017 22:46 12,8 C 65 % 1023,9 hPa 0,0 l/m 5,9 km/h (2 Bft) O 82 0 min 0,000 mm 0,0 UV-I 0 W/m 6,4 C 12,8 C 11,3 km/h (2 Bft) 97,87 %
30.03.2017 22:48 12,6 C 66 % 1023,9 hPa 0,0 l/m 5,4 km/h (1 Bft) O 82 0 min 0,000 mm 0,0 UV-I 0 W/m 6,4 C 12,6 C 9,7 km/h (2 Bft) 100,00 %
30.03.2017 22:50 12,3 C 67 % 1023,8 hPa 0,0 l/m 6,2 km/h (2 Bft) O-NO 74 0 min 0,000 mm 0,0 UV-I 0 W/m 6,4 C 12,3 C 8,0 km/h (2 Bft) 100,00 %
30.03.2017 22:52 12,3 C 67 % 1023,8 hPa 0,0 l/m 6,2 km/h (2 Bft) O 83 0 min 0,000 mm 0,0 UV-I 0 W/m 6,4 C 12,3 C 8,0 km/h (2 Bft) 100,00 %
30.03.2017 22:54 12,3 C 67 % 1023,8 hPa 0,0 l/m 6,3 km/h (2 Bft) O 85 0 min 0,000 mm 0,0 UV-I 0 W/m 6,4 C 12,3 C 11,3 km/h (2 Bft) 100,00 %
30.03.2017 22:56 12,3 C 67 % 1023,8 hPa 0,0 l/m 6,7 km/h (2 Bft) O-NO 74 0 min 0,000 mm 0,0 UV-I 0 W/m 6,4 C 12,1 C 11,3 km/h (2 Bft) 100,00 %
30.03.2017 22:58 12,4 C 67 % 1023,7 hPa 0,0 l/m 6,7 km/h (2 Bft) O 82 0 min 0,000 mm 0,0 UV-I 0 W/m 6,4 C 12,2 C 11,3 km/h (2 Bft) 97,92 %
30.03.2017 23:00 12,6 C 66 % 1023,7 hPa 0,0 l/m 7,5 km/h (2 Bft) O-NO 69 0 min 0,000 mm 0,0 UV-I 0 W/m 6,4 C 11,9 C 11,3 km/h (2 Bft) 100,00 %
30.03.2017 23:02 12,7 C 66 % 1023,7 hPa 0,0 l/m 6,6 km/h (2 Bft) O-NO 71 0 min 0,026 mm 0,0 UV-I 0 W/m 6,5 C 12,6 C 9,7 km/h (2 Bft) 100,00 %
30.03.2017 23:04 12,7 C 66 % 1023,7 hPa 0,0 l/m 7,4 km/h (2 Bft) O 91 0 min 0,000 mm 0,0 UV-I 0 W/m 6,5 C 12,1 C 11,3 km/h (2 Bft) 100,00 %
30.03.2017 23:06 12,7 C 66 % 1023,7 hPa 0,0 l/m 6,5 km/h (2 Bft) O 83 0 min 0,000 mm 0,0 UV-I 0 W/m 6,5 C 12,7 C 11,3 km/h (2 Bft) 97,14 %
30.03.2017 23:08 12,7 C 66 % 1023,7 hPa 0,0 l/m 6,4 km/h (2 Bft) O 88 0 min 0,000 mm 0,0 UV-I 0 W/m 6,5 C 12,7 C 11,3 km/h (2 Bft) 98,39 %
30.03.2017 23:10 12,6 C 66 % 1023,6 hPa 0,0 l/m 5,2 km/h (1 Bft) O-NO 75 0 min 0,000 mm 0,0 UV-I 0 W/m 6,4 C 12,6 C 8,0 km/h (2 Bft) 97,96 %
30.03.2017 23:12 12,4 C 67 % 1023,7 hPa 0,0 l/m 5,7 km/h (1 Bft) O 92 0 min 0,000 mm 0,0 UV-I 0 W/m 6,4 C 12,4 C 9,7 km/h (2 Bft) 97,56 %
30.03.2017 23:14 12,3 C 67 % 1023,6 hPa 0,0 l/m 5,8 km/h (2 Bft) O-NO 78 0 min 0,000 mm 0,0 UV-I 0 W/m 6,4 C 12,3 C 8,0 km/h (2 Bft) 95,74 %
30.03.2017 23:16 12,3 C 67 % 1023,6 hPa 0,0 l/m 4,9 km/h (1 Bft) O 82 0 min 0,000 mm 0,0 UV-I 0 W/m 6,4 C 12,3 C 8,0 km/h (2 Bft) 95,74 %
30.03.2017 23:18 12,2 C 68 % 1023,6 hPa 0,0 l/m 7,3 km/h (2 Bft) O 81 0 min 0,000 mm 0,0 UV-I 0 W/m 6,5 C 11,6 C 11,3 km/h (2 Bft) 97,87 %
30.03.2017 23:20 12,3 C 67 % 1023,6 hPa 0,0 l/m 6,0 km/h (2 Bft) O-NO 74 0 min 0,000 mm 0,0 UV-I 0 W/m 6,4 C 12,3 C 8,0 km/h (2 Bft) 96,15 %
30.03.2017 23:22 12,3 C 67 % 1023,6 hPa 0,0 l/m 6,2 km/h (2 Bft) O-NO 64 0 min 0,000 mm 0,0 UV-I 0 W/m 6,4 C 12,3 C 8,0 km/h (2 Bft) 97,87 %
30.03.2017 23:24 12,4 C 67 % 1023,6 hPa 0,0 l/m 5,1 km/h (1 Bft) O-NO 74 0 min 0,000 mm 0,0 UV-I 0 W/m 6,4 C 12,4 C 6,4 km/h (2 Bft) 93,62 %
30.03.2017 23:26 12,4 C 67 % 1023,6 hPa 0,0 l/m 6,4 km/h (2 Bft) O-NO 77 0 min 0,000 mm 0,0 UV-I 0 W/m 6,4 C 12,4 C 11,3 km/h (2 Bft) 95,74 %
30.03.2017 23:28 12,3 C 67 % 1023,6 hPa 0,0 l/m 5,8 km/h (2 Bft) O 85 0 min 0,000 mm 0,0 UV-I 0 W/m 6,4 C 12,3 C 8,0 km/h (2 Bft) 95,74 %
30.03.2017 23:30 12,3 C 67 % 1023,6 hPa 0,0 l/m 6,2 km/h (2 Bft) O 87 0 min 0,000 mm 0,0 UV-I 0 W/m 6,4 C 12,3 C 11,3 km/h (2 Bft) 93,62 %
30.03.2017 23:32 12,3 C 68 % 1023,6 hPa 0,0 l/m 6,2 km/h (2 Bft) O 79 0 min 0,000 mm 0,0 UV-I 0 W/m 6,6 C 12,3 C 8,0 km/h (2 Bft) 94,44 %
30.03.2017 23:34 12,3 C 68 % 1023,5 hPa 0,0 l/m 5,3 km/h (1 Bft) O-NO 66 0 min 0,000 mm 0,0 UV-I 0 W/m 6,6 C 12,3 C 8,0 km/h (2 Bft) 94,23 %
30.03.2017 23:36 12,3 C 68 % 1023,6 hPa 0,0 l/m 5,5 km/h (1 Bft) O 82 0 min 0,000 mm 0,0 UV-I 0 W/m 6,6 C 12,3 C 8,0 km/h (2 Bft) 96,00 %
30.03.2017 23:38 12,2 C 68 % 1023,6 hPa 0,0 l/m 4,7 km/h (1 Bft) O-NO 61 0 min 0,000 mm 0,0 UV-I 0 W/m 6,5 C 12,2 C 6,4 km/h (2 Bft) 94,87 %
30.03.2017 23:40 11,8 C 69 % 1023,6 hPa 0,0 l/m 3,7 km/h (1 Bft) O-NO 61 0 min 0,000 mm 0,0 UV-I 0 W/m 6,3 C 11,8 C 4,8 km/h (1 Bft) 95,92 %
30.03.2017 23:42 11,4 C 71 % 1023,6 hPa 0,0 l/m 3,8 km/h (1 Bft) O-NO 61 0 min 0,000 mm 0,0 UV-I 0 W/m 6,3 C 11,4 C 4,8 km/h (1 Bft) 97,87 %
30.03.2017 23:44 11,1 C 72 % 1023,6 hPa 0,0 l/m 5,2 km/h (1 Bft) O-NO 61 0 min 0,000 mm 0,0 UV-I 0 W/m 6,2 C 11,1 C 6,4 km/h (2 Bft) 97,87 %
30.03.2017 23:46 10,8 C 73 % 1023,6 hPa 0,0 l/m 4,9 km/h (1 Bft) O-NO 61 0 min 0,000 mm 0,0 UV-I 0 W/m 6,2 C 10,8 C 6,4 km/h (2 Bft) 95,74 %
30.03.2017 23:48 10,9 C 73 % 1023,5 hPa 0,0 l/m 6,0 km/h (2 Bft) O-NO 69 0 min 0,000 mm 0,0 UV-I 0 W/m 6,3 C 10,9 C 8,0 km/h (2 Bft) 97,96 %
30.03.2017 23:50 11,0 C 73 % 1023,5 hPa 0,0 l/m 6,7 km/h (2 Bft) O-NO 64 0 min 0,000 mm 0,0 UV-I 0 W/m 6,4 C 10,8 C 9,7 km/h (2 Bft) 93,62 %
30.03.2017 23:52 11,1 C 73 % 1023,5 hPa 0,0 l/m 6,5 km/h (2 Bft) O-NO 69 0 min 0,000 mm 0,0 UV-I 0 W/m 6,4 C 11,1 C 8,0 km/h (2 Bft) 97,87 %
30.03.2017 23:54 11,1 C 73 % 1023,5 hPa 0,0 l/m 5,4 km/h (1 Bft) O-NO 65 0 min 0,000 mm 0,0 UV-I 0 W/m 6,4 C 11,1 C 8,0 km/h (2 Bft) 97,87 %
30.03.2017 23:56 11,2 C 73 % 1023,5 hPa 0,0 l/m 4,7 km/h (1 Bft) O-NO 65 0 min 0,000 mm 0,0 UV-I 0 W/m 6,5 C 11,2 C 6,4 km/h (2 Bft) 97,87 %
30.03.2017 23:58 11,2 C 72 % 1023,5 hPa 0,0 l/m 6,1 km/h (2 Bft) O-NO 76 0 min 0,000 mm 0,0 UV-I 0 W/m 6,3 C 11,2 C 8,0 km/h (2 Bft) 97,87 %
_ Min-Zeit 02:38 14:36 19:10 - 06:24 - - - - - - 02:34 03:00 06:24 05:02
Minimum _ 8,3 C 45 % 1023,5 hPa - 0,0 km/h (0 Bft) - - - - - - 5,3 C 6,5 C 0,0 km/h (0 Bft) 87,23 %
_ Max-Zeit 15:42 07:02 10:38 00:00 15:54 - - 18:33 15:00 12:34 14:40 14:04 15:40 00:16 00:06
Maximum _ 19,2 C 82 % 1026,9 hPa 0,0 l/m 14,2 km/h
N-NO (3 Bft)
- - 3 min 0,406 mm 3,4 UV-I 915 W/m 9,6 C 19,0 C 19,3 km/h
SW (3 Bft)
100,00 %
Durchschnitt _ 13,2 C 67 % 1025,1 hPa #0,0 l/m 4,6 km/h (1 Bft) SW - #8:18 h #2,845 mm 1,9 UV-I 332 W/m 6,9 C 13,0 C 7,7 km/h (2 Bft) 96,64 %